| time (UTC) | temp C | wind direction | speed KPH | gust KPH | rain 1hr cm | rain 24hr cm | rain mn cm | humidity % | barometer mb |
| 20260506134607 | 8 | 0.0 | 1.6 | 0.00 | 0.81 | 1.55 | 97 | 1007.4 | |
| 20260506134507 | 8 | 0.0 | 0.0 | 0.00 | 0.81 | 1.55 | 97 | 1007.3 | |
| 20260506134407 | 8 | 0.0 | 3.2 | 0.00 | 0.81 | 1.55 | 97 | 1007.4 | |
| 20260506134307 | 8 | 313 | 4.8 | 4.8 | 0.00 | 0.81 | 1.55 | 97 | 1007.4 |
| 20260506134207 | 8 | 315 | 4.8 | 6.4 | 0.00 | 0.81 | 1.55 | 97 | 1007.4 |
| 20260506134107 | 8 | 329 | 4.8 | 4.8 | 0.00 | 0.81 | 1.55 | 97 | 1007.3 |
| 20260506134007 | 8 | 317 | 3.2 | 3.2 | 0.00 | 0.81 | 1.55 | 97 | 1007.4 |
| 20260506133907 | 8 | 317 | 3.2 | 4.8 | 0.00 | 0.81 | 1.55 | 97 | 1007.3 |
| 20260506133807 | 8 | 316 | 4.8 | 4.8 | 0.00 | 0.81 | 1.55 | 97 | 1007.4 |
| 20260506133707 | 8 | 0.0 | 0.0 | 0.00 | 0.81 | 1.52 | 97 | 1007.4 | |
| 20260506133607 | 8 | 317 | 3.2 | 3.2 | 0.00 | 0.81 | 1.52 | 97 | 1007.3 |
| 20260506133507 | 8 | 319 | 4.8 | 4.8 | 0.00 | 0.81 | 1.52 | 97 | 1007.3 |
| 20260506133407 | 8 | 314 | 1.6 | 3.2 | 0.00 | 0.81 | 1.52 | 97 | 1007.3 |
| 20260506133308 | 8 | 0.0 | 0.0 | 0.00 | 0.81 | 1.52 | 97 | 1007.3 | |
| 20260506133207 | 8 | 313 | 3.2 | 3.2 | 0.00 | 0.81 | 1.52 | 97 | 1007.3 |
| 20260506133107 | 8 | 0.0 | 0.0 | 0.00 | 0.81 | 1.52 | 97 | 1007.3 | |
| 20260506133007 | 8 | 0.0 | 0.0 | 0.00 | 0.84 | 1.52 | 97 | 1007.3 | |
| 20260506132908 | 8 | 0.0 | 0.0 | 0.00 | 0.84 | 1.52 | 97 | 1007.3 | |
| 20260506132807 | 8 | 0.0 | 0.0 | 0.00 | 0.84 | 1.52 | 97 | 1007.3 | |
| 20260506132707 | 8 | 315 | 3.2 | 4.8 | 0.00 | 0.84 | 1.52 | 97 | 1007.3 |
| 20260506132607 | 8 | 314 | 1.6 | 1.6 | 0.00 | 0.89 | 1.52 | 97 | 1007.3 |
| 20260506132507 | 8 | 313 | 4.8 | 4.8 | 0.00 | 0.99 | 1.52 | 97 | 1007.3 |
| 20260506132407 | 8 | 0.0 | 0.0 | 0.00 | 1.07 | 1.52 | 97 | 1007.3 | |
| 20260506132307 | 8 | 0.0 | 0.0 | 0.00 | 1.07 | 1.52 | 97 | 1007.3 | |
| 20260506132208 | 8 | 306 | 6.4 | 6.4 | 0.00 | 1.07 | 1.52 | 97 | 1007.3 |
| 20260506132107 | 8 | 0.0 | 0.0 | 0.00 | 1.07 | 1.52 | 97 | 1007.3 | |
| 20260506132007 | 8 | 315 | 1.6 | 4.8 | 0.00 | 1.07 | 1.52 | 97 | 1007.4 |
| 20260506131907 | 8 | 313 | 1.6 | 1.6 | 0.00 | 1.07 | 1.52 | 97 | 1007.4 |
| 20260506131807 | 8 | 0.0 | 1.6 | 0.00 | 1.07 | 1.52 | 97 | 1007.3 | |
| 20260506131707 | 8 | 0.0 | 0.0 | 0.00 | 1.07 | 1.52 | 97 | 1007.3 | |
| 20260506131607 | 8 | 313 | 3.2 | 4.8 | 0.00 | 1.07 | 1.52 | 97 | 1007.3 |
| 20260506131507 | 8 | 315 | 6.4 | 6.4 | 0.00 | 1.07 | 1.52 | 97 | 1007.3 |
| 20260506131406 | 7 | 0.0 | 0.0 | 0.00 | 1.07 | 1.52 | 97 | 1007.3 | |
| 20260506131307 | 7 | 315 | 3.2 | 3.2 | 0.00 | 1.07 | 1.52 | 97 | 1007.3 |
| 20260506131207 | 7 | 315 | 1.6 | 1.6 | 0.00 | 1.07 | 1.52 | 97 | 1007.3 |
| 20260506131108 | 7 | 316 | 1.6 | 1.6 | 0.00 | 1.07 | 1.52 | 97 | 1007.3 |
| 20260506131007 | 7 | 317 | 3.2 | 3.2 | 0.00 | 1.07 | 1.52 | 97 | 1007.3 |
| 20260506130907 | 7 | 0.0 | 0.0 | 0.00 | 1.07 | 1.52 | 97 | 1007.3 | |
| 20260506130807 | 7 | 0.0 | 0.0 | 0.00 | 1.07 | 1.52 | 97 | 1007.2 | |
| 20260506130707 | 7 | 0.0 | 0.0 | 0.00 | 1.07 | 1.52 | 97 | 1007.3 | |
| 20260506130607 | 7 | 317 | 1.6 | 3.2 | 0.00 | 1.07 | 1.52 | 97 | 1007.3 |
| 20260506130507 | 7 | 312 | 6.4 | 6.4 | 0.00 | 1.07 | 1.52 | 97 | 1007.3 |
| 20260506130407 | 7 | 311 | 1.6 | 3.2 | 0.00 | 1.07 | 1.52 | 97 | 1007.3 |
| 20260506130307 | 7 | 315 | 3.2 | 4.8 | 0.00 | 1.07 | 1.52 | 97 | 1007.3 |
| 20260506130207 | 7 | 317 | 4.8 | 4.8 | 0.00 | 1.07 | 1.52 | 97 | 1007.3 |
| 20260506130107 | 7 | 324 | 1.6 | 1.6 | 0.00 | 1.07 | 1.52 | 97 | 1007.3 |
| 20260506130008 | 7 | 0.0 | 0.0 | 0.00 | 1.07 | 1.52 | 97 | 1007.3 | |
| 20260506125907 | 7 | 0.0 | 3.2 | 0.00 | 1.07 | 1.52 | 97 | 1007.3 | |
| 20260506125807 | 7 | 0.0 | 0.0 | 0.00 | 1.07 | 1.52 | 97 | 1007.2 | |
| 20260506125707 | 7 | 0.0 | 0.0 | 0.00 | 1.07 | 1.52 | 97 | 1007.2 | |
| 20260506125607 | 7 | 0.0 | 0.0 | 0.00 | 1.07 | 1.52 | 97 | 1007.2 | |
| 20260506125507 | 7 | 332 | 1.6 | 3.2 | 0.00 | 1.07 | 1.52 | 97 | 1007.3 |
| 20260506125407 | 7 | 333 | 1.6 | 1.6 | 0.00 | 1.07 | 1.52 | 97 | 1007.2 |
| 20260506125307 | 7 | 327 | 6.4 | 6.4 | 0.00 | 1.07 | 1.52 | 97 | 1007.2 |
| 20260506125207 | 7 | 315 | 3.2 | 6.4 | 0.00 | 1.07 | 1.52 | 97 | 1007.2 |
| 20260506125107 | 7 | 313 | 8.0 | 8.0 | 0.00 | 1.07 | 1.52 | 97 | 1007.2 |
| 20260506125007 | 7 | 307 | 6.4 | 6.4 | 0.00 | 1.07 | 1.52 | 97 | 1007.2 |
| 20260506124907 | 7 | 318 | 3.2 | 4.8 | 0.00 | 1.07 | 1.52 | 97 | 1007.2 |
| 20260506124807 | 7 | 313 | 4.8 | 6.4 | 0.00 | 1.07 | 1.52 | 97 | 1007.2 |
| 20260506124707 | 7 | 318 | 4.8 | 4.8 | 0.00 | 1.07 | 1.52 | 97 | 1007.2 |
| 20260506124607 | 7 | 301 | 1.6 | 3.2 | 0.00 | 1.07 | 1.52 | 97 | 1007.2 |
| 20260506124508 | 7 | 325 | 4.8 | 4.8 | 0.00 | 1.07 | 1.52 | 97 | 1007.2 |
| 20260506124407 | 8 | 331 | 8.0 | 8.0 | 0.00 | 1.07 | 1.52 | 97 | 1007.2 |
| 20260506124307 | 8 | 339 | 6.4 | 6.4 | 0.00 | 1.07 | 1.52 | 97 | 1007.1 |
| 20260506124207 | 7 | 331 | 8.0 | 9.7 | 0.00 | 1.07 | 1.52 | 97 | 1007.1 |
| 20260506124107 | 8 | 325 | 6.4 | 8.0 | 0.00 | 1.07 | 1.52 | 97 | 1007.1 |
| 20260506124007 | 8 | 330 | 9.7 | 11.3 | 0.00 | 1.07 | 1.52 | 97 | 1007.1 |
| 20260506123906 | 8 | 333 | 4.8 | 6.4 | 0.00 | 1.07 | 1.52 | 97 | 1007.1 |
| 20260506123808 | 8 | 338 | 9.7 | 9.7 | 0.00 | 1.07 | 1.52 | 97 | 1007.1 |
| 20260506123707 | 7 | 321 | 6.4 | 6.4 | 0.00 | 1.07 | 1.52 | 97 | 1007.1 |
| 20260506123607 | 7 | 315 | 6.4 | 6.4 | 0.00 | 1.07 | 1.52 | 97 | 1007.1 |
| 20260506123507 | 7 | 307 | 8.0 | 8.0 | 0.00 | 1.07 | 1.52 | 97 | 1007.1 |
| 20260506123407 | 7 | 0.0 | 3.2 | 0.00 | 1.07 | 1.52 | 97 | 1007.1 | |
| 20260506123307 | 7 | 311 | 1.6 | 1.6 | 0.00 | 1.07 | 1.52 | 97 | 1007.1 |
| 20260506123206 | 7 | 320 | 1.6 | 1.6 | 0.00 | 1.07 | 1.52 | 97 | 1007.0 |
| 20260506123107 | 7 | 0.0 | 3.2 | 0.00 | 1.07 | 1.52 | 97 | 1007.1 | |
| 20260506123007 | 7 | 319 | 4.8 | 4.8 | 0.00 | 1.07 | 1.52 | 97 | 1007.0 |
| 20260506122906 | 7 | 313 | 6.4 | 6.4 | 0.00 | 1.07 | 1.52 | 97 | 1007.0 |
| 20260506122806 | 7 | 298 | 6.4 | 11.3 | 0.00 | 1.07 | 1.52 | 97 | 1007.0 |
| 20260506122708 | 7 | 322 | 6.4 | 6.4 | 0.00 | 1.07 | 1.52 | 97 | 1007.0 |
| 20260506122607 | 7 | 309 | 4.8 | 4.8 | 0.00 | 1.07 | 1.52 | 97 | 1007.1 |
| 20260506122507 | 7 | 306 | 4.8 | 4.8 | 0.00 | 1.07 | 1.52 | 97 | 1007.0 |
| 20260506122406 | 7 | 308 | 8.0 | 8.0 | 0.00 | 1.07 | 1.52 | 97 | 1007.1 |
| 20260506122307 | 7 | 315 | 4.8 | 6.4 | 0.00 | 1.07 | 1.52 | 97 | 1007.0 |
| 20260506122207 | 7 | 0.0 | 0.0 | 0.00 | 1.07 | 1.52 | 97 | 1007.0 | |
| 20260506122107 | 7 | 313 | 1.6 | 3.2 | 0.00 | 1.07 | 1.52 | 97 | 1007.1 |
| 20260506122007 | 7 | 0.0 | 1.6 | 0.00 | 1.07 | 1.52 | 97 | 1007.1 | |
| 20260506121907 | 7 | 319 | 3.2 | 4.8 | 0.00 | 1.07 | 1.52 | 97 | 1007.0 |
| 20260506121806 | 7 | 315 | 6.4 | 6.4 | 0.00 | 1.07 | 1.52 | 97 | 1007.0 |
| 20260506121707 | 7 | 309 | 3.2 | 3.2 | 0.00 | 1.07 | 1.52 | 97 | 1007.0 |
| 20260506121607 | 7 | 311 | 4.8 | 4.8 | 0.00 | 1.07 | 1.52 | 97 | 1007.0 |
| 20260506121507 | 7 | 315 | 1.6 | 3.2 | 0.00 | 1.07 | 1.52 | 97 | 1007.0 |
| 20260506121407 | 7 | 0.0 | 0.0 | 0.00 | 1.07 | 1.52 | 97 | 1007.0 | |
| 20260506121307 | 7 | 0.0 | 0.0 | 0.00 | 1.07 | 1.52 | 97 | 1007.0 | |
| 20260506121207 | 7 | 0.0 | 0.0 | 0.00 | 1.07 | 1.52 | 97 | 1007.0 | |
| 20260506121107 | 7 | 0.0 | 1.6 | 0.00 | 1.07 | 1.52 | 97 | 1007.0 | |
| 20260506121007 | 7 | 319 | 1.6 | 3.2 | 0.00 | 1.07 | 1.52 | 97 | 1007.0 |
| 20260506120906 | 7 | 325 | 3.2 | 3.2 | 0.00 | 1.07 | 1.52 | 97 | 1007.0 |
| 20260506120807 | 8 | 0.0 | 0.0 | 0.00 | 1.07 | 1.52 | 97 | 1007.0 | |
| 20260506120707 | 8 | 0.0 | 0.0 | 0.00 | 1.07 | 1.52 | 97 | 1007.0 | |
| 20260506120607 | 8 | 0.0 | 0.0 | 0.00 | 1.07 | 1.52 | 97 | 1007.0 | |
| 20260506120508 | 8 | 0.0 | 0.0 | 0.00 | 1.07 | 1.52 | 97 | 1007.0 | |
| 20260506120407 | 8 | 307 | 3.2 | 3.2 | 0.00 | 1.07 | 1.52 | 97 | 1007.0 |
| 20260506120306 | 8 | 0.0 | 1.6 | 0.00 | 1.07 | 1.52 | 97 | 1006.9 | |
| 20260506120207 | 8 | 313 | 1.6 | 1.6 | 0.00 | 1.07 | 1.52 | 97 | 1006.9 |
| 20260506120107 | 8 | 0.0 | 0.0 | 0.00 | 1.07 | 1.52 | 97 | 1006.9 | |
| 20260506120007 | 8 | 0.0 | 0.0 | 0.00 | 1.07 | 1.52 | 97 | 1006.9 | |
| 20260506115907 | 8 | 317 | 3.2 | 4.8 | 0.00 | 1.07 | 1.52 | 97 | 1006.9 |
| 20260506115807 | 8 | 321 | 8.0 | 8.0 | 0.00 | 1.07 | 1.52 | 97 | 1006.9 |
| 20260506115707 | 8 | 334 | 1.6 | 3.2 | 0.00 | 1.07 | 1.52 | 97 | 1006.9 |
| 20260506115607 | 8 | 0.0 | 1.6 | 0.00 | 1.07 | 1.52 | 97 | 1006.8 | |
| 20260506115507 | 8 | 301 | 4.8 | 4.8 | 0.00 | 1.07 | 1.52 | 97 | 1006.8 |
| 20260506115407 | 8 | 322 | 3.2 | 3.2 | 0.00 | 1.07 | 1.52 | 97 | 1006.8 |
| 20260506115307 | 8 | 316 | 3.2 | 9.7 | 0.00 | 1.07 | 1.52 | 97 | 1006.8 |
| 20260506115206 | 8 | 338 | 8.0 | 8.0 | 0.00 | 1.07 | 1.52 | 97 | 1006.8 |
| 20260506115106 | 8 | 315 | 3.2 | 3.2 | 0.00 | 1.07 | 1.52 | 97 | 1006.8 |
| 20260506115007 | 8 | 0.0 | 0.0 | 0.00 | 1.07 | 1.52 | 97 | 1006.7 | |
| 20260506114906 | 8 | 0.0 | 0.0 | 0.00 | 1.07 | 1.52 | 97 | 1006.8 | |
| 20260506114807 | 8 | 315 | 3.2 | 4.8 | 0.00 | 1.07 | 1.52 | 97 | 1006.8 |
| 20260506114707 | 8 | 299 | 8.0 | 9.7 | 0.00 | 1.07 | 1.52 | 97 | 1006.8 |
| 20260506114607 | 8 | 317 | 6.4 | 6.4 | 0.00 | 1.07 | 1.52 | 97 | 1006.7 |
| 20260506114507 | 8 | 0.0 | 1.6 | 0.00 | 1.07 | 1.52 | 97 | 1006.7 | |
| 20260506114407 | 8 | 306 | 4.8 | 8.0 | 0.00 | 1.07 | 1.52 | 97 | 1006.7 |
| 20260506114308 | 8 | 325 | 4.8 | 4.8 | 0.00 | 1.07 | 1.52 | 97 | 1006.7 |
| 20260506114207 | 8 | 324 | 8.0 | 8.0 | 0.00 | 1.07 | 1.52 | 97 | 1006.7 |
| 20260506114107 | 8 | 308 | 4.8 | 4.8 | 0.00 | 1.07 | 1.52 | 97 | 1006.6 |
| 20260506114006 | 8 | 321 | 4.8 | 6.4 | 0.00 | 1.07 | 1.52 | 97 | 1006.6 |
| 20260506113908 | 8 | 307 | 9.7 | 9.7 | 0.00 | 1.07 | 1.52 | 97 | 1006.6 |
| 20260506113807 | 8 | 324 | 1.6 | 3.2 | 0.00 | 1.07 | 1.52 | 97 | 1006.6 |
| 20260506113706 | 8 | 332 | 6.4 | 6.4 | 0.00 | 1.07 | 1.52 | 97 | 1006.6 |
| 20260506113607 | 8 | 0.0 | 0.0 | 0.00 | 1.07 | 1.52 | 97 | 1006.6 | |
| 20260506113506 | 8 | 312 | 1.6 | 1.6 | 0.00 | 1.07 | 1.52 | 97 | 1006.7 |
| 20260506113406 | 8 | 304 | 4.8 | 8.0 | 0.00 | 1.07 | 1.52 | 97 | 1006.7 |
| 20260506113306 | 8 | 0.0 | 0.0 | 0.00 | 1.07 | 1.52 | 97 | 1006.7 | |
| 20260506113207 | 8 | 0.0 | 1.6 | 0.00 | 1.07 | 1.52 | 97 | 1006.7 | |
| 20260506113106 | 8 | 297 | 6.4 | 6.4 | 0.00 | 1.07 | 1.52 | 97 | 1006.7 |
| 20260506113007 | 8 | 305 | 3.2 | 3.2 | 0.00 | 1.07 | 1.52 | 97 | 1006.7 |
| 20260506112907 | 8 | 0.0 | 1.6 | 0.00 | 1.07 | 1.52 | 97 | 1006.7 | |
| 20260506112807 | 8 | 321 | 4.8 | 4.8 | 0.00 | 1.07 | 1.52 | 97 | 1006.7 |
| 20260506112707 | 8 | 296 | 4.8 | 6.4 | 0.00 | 1.07 | 1.52 | 97 | 1006.7 |
| 20260506112606 | 8 | 316 | 4.8 | 6.4 | 0.00 | 1.07 | 1.52 | 97 | 1006.7 |
| 20260506112507 | 8 | 315 | 4.8 | 6.4 | 0.00 | 1.07 | 1.52 | 97 | 1006.7 |
| 20260506112406 | 8 | 306 | 1.6 | 4.8 | 0.00 | 1.07 | 1.52 | 97 | 1006.7 |
| 20260506112307 | 8 | 0.0 | 0.0 | 0.00 | 1.07 | 1.52 | 97 | 1006.7 | |
| 20260506112206 | 8 | 315 | 1.6 | 1.6 | 0.00 | 1.07 | 1.52 | 97 | 1006.7 |
| 20260506112108 | 8 | 0.0 | 0.0 | 0.00 | 1.07 | 1.52 | 97 | 1006.7 | |
| 20260506112007 | 8 | 0.0 | 0.0 | 0.00 | 1.07 | 1.52 | 97 | 1006.7 | |
| 20260506111907 | 8 | 318 | 4.8 | 4.8 | 0.00 | 1.07 | 1.52 | 97 | 1006.8 |
| 20260506111807 | 8 | 315 | 4.8 | 4.8 | 0.00 | 1.07 | 1.52 | 97 | 1006.7 |
| 20260506111707 | 8 | 336 | 1.6 | 1.6 | 0.00 | 1.07 | 1.52 | 97 | 1006.7 |
| 20260506111606 | 8 | 336 | 3.2 | 3.2 | 0.00 | 1.07 | 1.52 | 97 | 1006.8 |
| 20260506111506 | 8 | 0.0 | 0.0 | 0.00 | 1.07 | 1.52 | 97 | 1006.7 | |
| 20260506111406 | 8 | 0.0 | 0.0 | 0.00 | 1.07 | 1.52 | 97 | 1006.7 | |
| 20260506111307 | 8 | 320 | 1.6 | 4.8 | 0.00 | 1.07 | 1.52 | 97 | 1006.7 |
| 20260506111206 | 8 | 0.0 | 0.0 | 0.00 | 1.07 | 1.52 | 97 | 1006.8 | |
| 20260506111106 | 8 | 0.0 | 0.0 | 0.00 | 1.07 | 1.52 | 97 | 1006.7 | |
| 20260506111007 | 8 | 319 | 3.2 | 4.8 | 0.00 | 1.07 | 1.52 | 97 | 1006.7 |
| 20260506110906 | 8 | 322 | 1.6 | 3.2 | 0.00 | 1.07 | 1.52 | 97 | 1006.8 |
| 20260506110807 | 8 | 0.0 | 0.0 | 0.00 | 1.07 | 1.52 | 97 | 1006.7 | |
| 20260506110706 | 8 | 304 | 1.6 | 1.6 | 0.00 | 1.07 | 1.52 | 97 | 1006.7 |
| 20260506110607 | 8 | 321 | 6.4 | 6.4 | 0.00 | 1.07 | 1.52 | 97 | 1006.7 |
| 20260506110506 | 8 | 333 | 1.6 | 3.2 | 0.00 | 1.07 | 1.52 | 97 | 1006.7 |
| 20260506110407 | 8 | 332 | 6.4 | 6.4 | 0.00 | 1.07 | 1.52 | 97 | 1006.7 |
| 20260506110307 | 8 | 329 | 6.4 | 8.0 | 0.00 | 1.07 | 1.52 | 98 | 1006.7 |
| 20260506110206 | 8 | 325 | 6.4 | 6.4 | 0.00 | 1.07 | 1.52 | 98 | 1006.7 |
| 20260506110106 | 8 | 333 | 6.4 | 6.4 | 0.00 | 1.07 | 1.52 | 98 | 1006.6 |
| 20260506110006 | 8 | 319 | 9.7 | 9.7 | 0.00 | 1.07 | 1.52 | 98 | 1006.6 |
| 20260506105907 | 8 | 327 | 8.0 | 8.0 | 0.00 | 1.07 | 1.52 | 98 | 1006.6 |
| 20260506105806 | 8 | 319 | 4.8 | 4.8 | 0.00 | 1.07 | 1.52 | 98 | 1006.6 |
| 20260506105707 | 8 | 304 | 1.6 | 3.2 | 0.00 | 1.07 | 1.52 | 98 | 1006.6 |
| 20260506105606 | 8 | 312 | 6.4 | 6.4 | 0.00 | 1.07 | 1.52 | 98 | 1006.7 |
| 20260506105507 | 8 | 303 | 4.8 | 4.8 | 0.00 | 1.07 | 1.52 | 98 | 1006.6 |
| 20260506105406 | 8 | 317 | 4.8 | 4.8 | 0.00 | 1.07 | 1.52 | 98 | 1006.7 |
| 20260506105306 | 8 | 319 | 9.7 | 11.3 | 0.00 | 1.07 | 1.52 | 98 | 1006.6 |
| 20260506105207 | 8 | 323 | 6.4 | 6.4 | 0.00 | 1.07 | 1.52 | 98 | 1006.7 |
| 20260506105107 | 8 | 314 | 6.4 | 6.4 | 0.00 | 1.07 | 1.52 | 98 | 1006.6 |
| 20260506105007 | 8 | 304 | 9.7 | 9.7 | 0.00 | 1.07 | 1.52 | 98 | 1006.6 |
| 20260506104907 | 8 | 328 | 6.4 | 6.4 | 0.00 | 1.07 | 1.52 | 98 | 1006.6 |
| 20260506104808 | 8 | 313 | 8.0 | 8.0 | 0.00 | 1.07 | 1.52 | 98 | 1006.6 |
| 20260506104706 | 8 | 308 | 1.6 | 1.6 | 0.00 | 1.07 | 1.52 | 98 | 1006.7 |
| 20260506104606 | 8 | 306 | 4.8 | 4.8 | 0.00 | 1.07 | 1.52 | 98 | 1006.6 |
| 20260506104506 | 8 | 340 | 8.0 | 8.0 | 0.00 | 1.07 | 1.52 | 98 | 1006.6 |
| 20260506104407 | 8 | 313 | 3.2 | 4.8 | 0.00 | 1.07 | 1.52 | 98 | 1006.6 |
| 20260506104307 | 8 | 0.0 | 0.0 | 0.00 | 1.07 | 1.52 | 98 | 1006.6 | |
| 20260506104206 | 8 | 0.0 | 0.0 | 0.00 | 1.07 | 1.52 | 98 | 1006.6 | |
| 20260506104106 | 8 | 313 | 8.0 | 8.0 | 0.00 | 1.07 | 1.52 | 98 | 1006.6 |
| 20260506104007 | 8 | 314 | 6.4 | 6.4 | 0.00 | 1.07 | 1.52 | 98 | 1006.6 |
| 20260506103907 | 8 | 310 | 8.0 | 8.0 | 0.00 | 1.07 | 1.52 | 98 | 1006.6 |
| 20260506103807 | 8 | 329 | 4.8 | 4.8 | 0.00 | 1.07 | 1.52 | 98 | 1006.6 |
| 20260506103707 | 8 | 313 | 6.4 | 8.0 | 0.00 | 1.07 | 1.52 | 98 | 1006.5 |
| 20260506103607 | 8 | 332 | 6.4 | 6.4 | 0.00 | 1.07 | 1.52 | 98 | 1006.5 |
| 20260506103507 | 8 | 331 | 8.0 | 8.0 | 0.00 | 1.07 | 1.52 | 98 | 1006.5 |
| 20260506103407 | 8 | 331 | 4.8 | 4.8 | 0.00 | 1.07 | 1.52 | 98 | 1006.5 |
| 20260506103307 | 8 | 321 | 6.4 | 8.0 | 0.00 | 1.07 | 1.52 | 98 | 1006.5 |
| 20260506103207 | 8 | 333 | 8.0 | 8.0 | 0.00 | 1.07 | 1.52 | 98 | 1006.5 |
| 20260506103107 | 8 | 328 | 8.0 | 8.0 | 0.00 | 1.07 | 1.52 | 98 | 1006.4 |
| 20260506103007 | 8 | 315 | 12.9 | 16.1 | 0.00 | 1.07 | 1.52 | 98 | 1006.5 |
| 20260506102907 | 8 | 299 | 4.8 | 6.4 | 0.00 | 1.07 | 1.52 | 98 | 1006.4 |
| 20260506102806 | 8 | 306 | 1.6 | 1.6 | 0.00 | 1.07 | 1.52 | 98 | 1006.5 |
| 20260506102706 | 8 | 317 | 3.2 | 4.8 | 0.00 | 1.07 | 1.52 | 98 | 1006.4 |
| 20260506102608 | 8 | 309 | 3.2 | 3.2 | 0.00 | 1.07 | 1.52 | 98 | 1006.5 |
| 20260506102506 | 8 | 311 | 3.2 | 3.2 | 0.00 | 1.07 | 1.52 | 98 | 1006.4 |
| 20260506102407 | 8 | 313 | 1.6 | 1.6 | 0.00 | 1.07 | 1.52 | 98 | 1006.4 |
| 20260506102307 | 8 | 315 | 3.2 | 4.8 | 0.00 | 1.07 | 1.52 | 98 | 1006.4 |
| 20260506102207 | 8 | 0.0 | 0.0 | 0.00 | 1.07 | 1.52 | 98 | 1006.5 | |
| 20260506102107 | 8 | 317 | 4.8 | 4.8 | 0.00 | 1.07 | 1.52 | 98 | 1006.4 |
| 20260506102007 | 8 | 315 | 4.8 | 4.8 | 0.00 | 1.07 | 1.52 | 98 | 1006.4 |
| 20260506101907 | 8 | 311 | 4.8 | 6.4 | 0.00 | 1.07 | 1.52 | 98 | 1006.4 |
| 20260506101806 | 8 | 312 | 3.2 | 6.4 | 0.00 | 1.07 | 1.52 | 98 | 1006.5 |
| 20260506101707 | 8 | 317 | 8.0 | 8.0 | 0.00 | 1.07 | 1.52 | 98 | 1006.4 |
| 20260506101607 | 8 | 326 | 6.4 | 6.4 | 0.00 | 1.07 | 1.52 | 98 | 1006.4 |
| 20260506101507 | 8 | 0.0 | 0.0 | 0.00 | 1.07 | 1.52 | 98 | 1006.4 | |
| 20260506101406 | 8 | 327 | 6.4 | 6.4 | 0.00 | 1.07 | 1.52 | 98 | 1006.4 |
| 20260506101306 | 8 | 321 | 4.8 | 4.8 | 0.00 | 1.07 | 1.52 | 98 | 1006.4 |
| 20260506101206 | 8 | 321 | 4.8 | 4.8 | 0.00 | 1.07 | 1.52 | 98 | 1006.4 |
| 20260506101107 | 8 | 325 | 8.0 | 8.0 | 0.00 | 1.07 | 1.52 | 98 | 1006.4 |
| 20260506101006 | 8 | 332 | 8.0 | 8.0 | 0.00 | 1.07 | 1.52 | 98 | 1006.3 |
| 20260506100907 | 8 | 336 | 6.4 | 6.4 | 0.00 | 1.07 | 1.52 | 98 | 1006.3 |
| 20260506100806 | 8 | 336 | 4.8 | 4.8 | 0.00 | 1.07 | 1.52 | 98 | 1006.3 |
| 20260506100706 | 8 | 324 | 9.7 | 9.7 | 0.00 | 1.07 | 1.52 | 98 | 1006.4 |
| 20260506100607 | 8 | 312 | 9.7 | 12.9 | 0.00 | 1.07 | 1.52 | 98 | 1006.3 |
| 20260506100506 | 8 | 327 | 9.7 | 9.7 | 0.00 | 1.07 | 1.52 | 98 | 1006.4 |
| 20260506100407 | 8 | 315 | 8.0 | 8.0 | 0.00 | 1.07 | 1.52 | 98 | 1006.4 |
| 20260506100306 | 8 | 319 | 9.7 | 9.7 | 0.00 | 1.07 | 1.52 | 98 | 1006.4 |
| 20260506100206 | 8 | 336 | 8.0 | 8.0 | 0.00 | 1.07 | 1.52 | 98 | 1006.4 |
| 20260506100106 | 8 | 318 | 14.5 | 14.5 | 0.00 | 1.07 | 1.52 | 98 | 1006.4 |
| 20260506100007 | 9 | 0.0 | 0.0 | 0.00 | 1.07 | 1.52 | 98 | 1006.4 | |
| 20260506095907 | 9 | 325 | 4.8 | 4.8 | 0.00 | 1.07 | 1.52 | 98 | 1006.4 |
| 20260506095807 | 9 | 315 | 4.8 | 4.8 | 0.00 | 1.07 | 1.52 | 98 | 1006.3 |
| 20260506095706 | 9 | 316 | 8.0 | 8.0 | 0.00 | 1.07 | 1.52 | 98 | 1006.3 |
| 20260506095606 | 9 | 283 | 3.2 | 4.8 | 0.00 | 1.07 | 1.52 | 98 | 1006.3 |
| 20260506095507 | 9 | 311 | 3.2 | 3.2 | 0.00 | 1.07 | 1.52 | 98 | 1006.2 |
| 20260506095406 | 9 | 323 | 6.4 | 6.4 | 0.00 | 1.07 | 1.52 | 98 | 1006.3 |
| 20260506095307 | 9 | 335 | 6.4 | 6.4 | 0.00 | 1.07 | 1.52 | 98 | 1006.2 |
| 20260506095206 | 9 | 313 | 8.0 | 8.0 | 0.00 | 1.07 | 1.52 | 98 | 1006.2 |
| 20260506095106 | 9 | 292 | 3.2 | 6.4 | 0.00 | 1.07 | 1.52 | 98 | 1006.2 |
| 20260506095007 | 9 | 315 | 6.4 | 6.4 | 0.00 | 1.07 | 1.52 | 98 | 1006.2 |
| 20260506094907 | 9 | 337 | 9.7 | 9.7 | 0.00 | 1.07 | 1.52 | 98 | 1006.2 |
| 20260506094806 | 9 | 324 | 6.4 | 6.4 | 0.00 | 1.07 | 1.52 | 98 | 1006.2 |
| 20260506094706 | 9 | 319 | 3.2 | 4.8 | 0.00 | 1.07 | 1.52 | 98 | 1006.2 |
| 20260506094606 | 9 | 311 | 4.8 | 6.4 | 0.00 | 1.07 | 1.52 | 98 | 1006.2 |
| 20260506094507 | 9 | 309 | 4.8 | 4.8 | 0.00 | 1.07 | 1.52 | 98 | 1006.2 |
| 20260506094406 | 9 | 316 | 8.0 | 9.7 | 0.00 | 1.07 | 1.52 | 98 | 1006.1 |
| 20260506094307 | 9 | 315 | 4.8 | 4.8 | 0.00 | 1.07 | 1.52 | 98 | 1006.1 |
| 20260506094207 | 9 | 321 | 4.8 | 4.8 | 0.00 | 1.07 | 1.52 | 98 | 1006.1 |
| 20260506094106 | 9 | 333 | 1.6 | 4.8 | 0.00 | 1.07 | 1.52 | 98 | 1006.1 |
| 20260506094006 | 9 | 0.0 | 0.0 | 0.00 | 1.07 | 1.52 | 98 | 1006.1 | |
| 20260506093906 | 9 | 0.0 | 0.0 | 0.00 | 1.07 | 1.52 | 98 | 1006.1 | |
| 20260506093807 | 9 | 319 | 6.4 | 8.0 | 0.00 | 1.07 | 1.52 | 98 | 1006.1 |
| 20260506093706 | 9 | 330 | 6.4 | 6.4 | 0.00 | 1.07 | 1.52 | 98 | 1006.1 |
| 20260506093607 | 9 | 325 | 9.7 | 9.7 | 0.00 | 1.07 | 1.52 | 98 | 1006.1 |
| 20260506093507 | 9 | 333 | 9.7 | 9.7 | 0.00 | 1.07 | 1.52 | 98 | 1006.1 |
| 20260506093406 | 9 | 319 | 4.8 | 4.8 | 0.00 | 1.07 | 1.52 | 98 | 1006.1 |
| 20260506093306 | 9 | 313 | 4.8 | 4.8 | 0.00 | 1.07 | 1.52 | 98 | 1006.1 |
| 20260506093206 | 9 | 312 | 6.4 | 6.4 | 0.00 | 1.07 | 1.52 | 98 | 1006.1 |
| 20260506093107 | 9 | 314 | 3.2 | 4.8 | 0.00 | 1.07 | 1.52 | 98 | 1006.1 |
| 20260506093006 | 9 | 312 | 6.4 | 8.0 | 0.00 | 1.07 | 1.52 | 98 | 1006.1 |
| 20260506092906 | 9 | 312 | 3.2 | 4.8 | 0.00 | 1.07 | 1.52 | 98 | 1006.0 |
| 20260506092806 | 9 | 311 | 3.2 | 4.8 | 0.00 | 1.07 | 1.52 | 98 | 1006.0 |
| 20260506092707 | 9 | 316 | 8.0 | 9.7 | 0.00 | 1.07 | 1.52 | 98 | 1006.0 |
| 20260506092606 | 9 | 323 | 3.2 | 3.2 | 0.00 | 1.07 | 1.52 | 98 | 1006.0 |
| 20260506092506 | 9 | 311 | 4.8 | 4.8 | 0.00 | 1.07 | 1.52 | 98 | 1005.9 |
| 20260506092407 | 9 | 316 | 4.8 | 4.8 | 0.00 | 1.07 | 1.52 | 98 | 1005.9 |
| 20260506092306 | 9 | 308 | 4.8 | 4.8 | 0.00 | 1.07 | 1.52 | 98 | 1005.9 |
| 20260506092206 | 9 | 304 | 6.4 | 8.0 | 0.00 | 1.07 | 1.52 | 98 | 1005.9 |
| 20260506092106 | 9 | 331 | 8.0 | 8.0 | 0.00 | 1.07 | 1.52 | 98 | 1005.9 |
| 20260506092007 | 9 | 0.0 | 0.0 | 0.00 | 1.07 | 1.52 | 98 | 1005.9 | |
| 20260506091906 | 9 | 327 | 3.2 | 3.2 | 0.00 | 1.07 | 1.52 | 98 | 1005.9 |
| 20260506091806 | 9 | 0.0 | 0.0 | 0.00 | 1.07 | 1.52 | 98 | 1005.9 | |
| 20260506091706 | 9 | 325 | 1.6 | 3.2 | 0.00 | 1.07 | 1.52 | 98 | 1006.0 |
| 20260506091607 | 9 | 323 | 6.4 | 6.4 | 0.00 | 1.07 | 1.52 | 98 | 1005.9 |
| 20260506091506 | 9 | 319 | 3.2 | 6.4 | 0.00 | 1.07 | 1.52 | 98 | 1006.0 |
| 20260506091407 | 9 | 319 | 4.8 | 6.4 | 0.00 | 1.07 | 1.52 | 98 | 1005.9 |
| 20260506091306 | 9 | 321 | 8.0 | 8.0 | 0.00 | 1.07 | 1.52 | 98 | 1005.9 |
| 20260506091206 | 9 | 331 | 4.8 | 4.8 | 0.00 | 1.07 | 1.52 | 98 | 1005.9 |
| 20260506091106 | 9 | 0.0 | 0.0 | 0.00 | 1.07 | 1.52 | 98 | 1005.9 | |
| 20260506091007 | 9 | 327 | 4.8 | 6.4 | 0.00 | 1.07 | 1.52 | 98 | 1005.9 |
| 20260506090907 | 9 | 317 | 3.2 | 3.2 | 0.00 | 1.07 | 1.52 | 98 | 1005.9 |
| 20260506090807 | 9 | 321 | 6.4 | 6.4 | 0.00 | 1.07 | 1.52 | 98 | 1005.9 |
| 20260506090706 | 9 | 330 | 3.2 | 3.2 | 0.00 | 1.07 | 1.52 | 98 | 1005.9 |
| 20260506090606 | 9 | 333 | 3.2 | 3.2 | 0.00 | 1.07 | 1.52 | 98 | 1005.9 |
| 20260506090507 | 9 | 334 | 3.2 | 3.2 | 0.00 | 1.07 | 1.52 | 98 | 1005.8 |
| 20260506090407 | 9 | 333 | 4.8 | 4.8 | 0.00 | 1.07 | 1.52 | 98 | 1005.9 |
| 20260506090307 | 9 | 311 | 3.2 | 3.2 | 0.00 | 1.07 | 1.52 | 98 | 1005.8 |
| 20260506090207 | 9 | 311 | 1.6 | 1.6 | 0.00 | 1.07 | 1.52 | 98 | 1005.8 |
| 20260506090106 | 9 | 310 | 3.2 | 3.2 | 0.00 | 1.07 | 1.52 | 98 | 1005.8 |
| 20260506090006 | 9 | 327 | 1.6 | 4.8 | 0.00 | 1.07 | 1.52 | 98 | 1005.7 |
| 20260506085906 | 9 | 0.0 | 0.0 | 0.00 | 1.07 | 1.52 | 98 | 1005.7 | |
| 20260506085807 | 9 | 321 | 4.8 | 4.8 | 0.00 | 1.07 | 1.52 | 98 | 1005.7 |
| 20260506085706 | 9 | 284 | 4.8 | 4.8 | 0.00 | 1.07 | 1.52 | 98 | 1005.7 |
| 20260506085606 | 9 | 297 | 3.2 | 3.2 | 0.00 | 1.07 | 1.52 | 98 | 1005.7 |
| 20260506085506 | 9 | 310 | 6.4 | 6.4 | 0.00 | 1.07 | 1.52 | 98 | 1005.7 |
| 20260506085407 | 9 | 313 | 3.2 | 3.2 | 0.00 | 1.07 | 1.52 | 98 | 1005.7 |
| 20260506085307 | 9 | 0.0 | 0.0 | 0.00 | 1.07 | 1.52 | 98 | 1005.7 | |
| 20260506085206 | 9 | 310 | 4.8 | 4.8 | 0.00 | 1.07 | 1.52 | 98 | 1005.7 |
| 20260506085106 | 9 | 328 | 6.4 | 6.4 | 0.00 | 1.07 | 1.52 | 98 | 1005.7 |
| 20260506085006 | 9 | 329 | 3.2 | 3.2 | 0.00 | 1.07 | 1.52 | 98 | 1005.7 |
| 20260506084907 | 9 | 336 | 4.8 | 4.8 | 0.00 | 1.07 | 1.52 | 98 | 1005.6 |
| 20260506084806 | 9 | 334 | 4.8 | 4.8 | 0.00 | 1.07 | 1.52 | 98 | 1005.6 |
| 20260506084707 | 9 | 327 | 3.2 | 3.2 | 0.00 | 1.07 | 1.52 | 98 | 1005.6 |
| 20260506084606 | 9 | 327 | 6.4 | 6.4 | 0.00 | 1.07 | 1.52 | 98 | 1005.6 |
| 20260506084506 | 9 | 319 | 6.4 | 6.4 | 0.00 | 1.07 | 1.52 | 98 | 1005.6 |
| 20260506084406 | 9 | 331 | 3.2 | 4.8 | 0.00 | 1.07 | 1.52 | 98 | 1005.6 |
| 20260506084307 | 9 | 329 | 3.2 | 4.8 | 0.00 | 1.07 | 1.52 | 98 | 1005.6 |
| 20260506084206 | 9 | 306 | 8.0 | 8.0 | 0.00 | 1.07 | 1.52 | 98 | 1005.6 |
| 20260506084106 | 9 | 322 | 6.4 | 8.0 | 0.03 | 1.07 | 1.52 | 98 | 1005.6 |
| 20260506084007 | 9 | 329 | 6.4 | 6.4 | 0.03 | 1.07 | 1.52 | 98 | 1005.7 |
| 20260506083906 | 9 | 326 | 9.7 | 9.7 | 0.03 | 1.07 | 1.52 | 98 | 1005.6 |
| 20260506083806 | 9 | 315 | 1.6 | 1.6 | 0.03 | 1.07 | 1.52 | 98 | 1005.6 |
| 20260506083706 | 9 | 0.0 | 0.0 | 0.03 | 1.07 | 1.52 | 98 | 1005.6 | |
| 20260506083607 | 9 | 0.0 | 1.6 | 0.03 | 1.07 | 1.52 | 98 | 1005.6 | |
| 20260506083507 | 9 | 316 | 1.6 | 1.6 | 0.03 | 1.07 | 1.52 | 98 | 1005.6 |
| 20260506083406 | 9 | 0.0 | 0.0 | 0.03 | 1.07 | 1.52 | 98 | 1005.6 | |
| 20260506083307 | 9 | 0.0 | 0.0 | 0.03 | 1.07 | 1.52 | 98 | 1005.6 | |
| 20260506083207 | 9 | 0.0 | 0.0 | 0.03 | 1.07 | 1.52 | 98 | 1005.6 | |
| 20260506083106 | 9 | 0.0 | 1.6 | 0.03 | 1.07 | 1.52 | 98 | 1005.6 | |
| 20260506083006 | 9 | 308 | 4.8 | 4.8 | 0.03 | 1.07 | 1.52 | 98 | 1005.5 |
| 20260506082906 | 9 | 336 | 3.2 | 4.8 | 0.03 | 1.07 | 1.52 | 98 | 1005.5 |
| 20260506082806 | 9 | 323 | 8.0 | 14.5 | 0.03 | 1.07 | 1.52 | 98 | 1005.5 |
| 20260506082652 | 9 | 319 | 9.7 | 11.3 | 0.03 | 1.07 | 1.52 | 98 | 1005.6 |
| 20260506082552 | 9 | 322 | 6.4 | 6.4 | 0.03 | 1.07 | 1.52 | 98 | 1005.6 |
| 20260506082453 | 9 | 315 | 3.2 | 3.2 | 0.03 | 1.07 | 1.52 | 98 | 1005.6 |
| 20260506082352 | 9 | 313 | 4.8 | 4.8 | 0.03 | 1.07 | 1.52 | 98 | 1005.6 |
| 20260506082242 | 9 | 304 | 3.2 | 3.2 | 0.03 | 1.07 | 1.50 | 98 | 1005.6 |
| 20260506082142 | 9 | 316 | 3.2 | 4.8 | 0.03 | 1.07 | 1.50 | 98 | 1005.5 |
| 20260506082043 | 9 | 296 | 6.4 | 8.0 | 0.03 | 1.07 | 1.50 | 98 | 1005.5 |
| 20260506081932 | 9 | 284 | 3.2 | 3.2 | 0.03 | 1.07 | 1.50 | 98 | 1005.5 |
| 20260506081832 | 9 | 237 | 3.2 | 6.4 | 0.03 | 1.07 | 1.50 | 98 | 1005.5 |
| 20260506081733 | 9 | 309 | 6.4 | 6.4 | 0.03 | 1.07 | 1.50 | 98 | 1005.5 |
| 20260506081633 | 9 | 311 | 4.8 | 6.4 | 0.03 | 1.07 | 1.50 | 98 | 1005.5 |
| 20260506081532 | 9 | 306 | 4.8 | 6.4 | 0.03 | 1.07 | 1.50 | 98 | 1005.5 |
| 20260506081432 | 9 | 0.0 | 0.0 | 0.03 | 1.07 | 1.50 | 98 | 1005.5 | |
| 20260506081333 | 9 | 0.0 | 0.0 | 0.03 | 1.07 | 1.50 | 98 | 1005.5 | |
| 20260506081232 | 9 | 0.0 | 0.0 | 0.03 | 1.07 | 1.50 | 98 | 1005.4 | |
| 20260506081132 | 9 | 0.0 | 0.0 | 0.03 | 1.07 | 1.50 | 98 | 1005.5 | |
| 20260506081032 | 9 | 271 | 4.8 | 4.8 | 0.03 | 1.07 | 1.50 | 98 | 1005.4 |
| 20260506080933 | 9 | 0.0 | 0.0 | 0.03 | 1.07 | 1.50 | 98 | 1005.5 | |
| 20260506080832 | 9 | 0.0 | 0.0 | 0.03 | 1.07 | 1.50 | 98 | 1005.5 | |
| 20260506080732 | 9 | 0.0 | 0.0 | 0.03 | 1.07 | 1.50 | 98 | 1005.5 | |
| 20260506080632 | 9 | 0.0 | 0.0 | 0.03 | 1.07 | 1.50 | 98 | 1005.4 | |
| 20260506080532 | 9 | 0.0 | 0.0 | 0.03 | 1.07 | 1.50 | 98 | 1005.4 | |
| 20260506080432 | 9 | 0.0 | 0.0 | 0.03 | 1.07 | 1.50 | 98 | 1005.5 | |
| 20260506080332 | 9 | 312 | 4.8 | 6.4 | 0.03 | 1.07 | 1.50 | 98 | 1005.4 |
| 20260506080233 | 9 | 319 | 3.2 | 3.2 | 0.03 | 1.07 | 1.50 | 98 | 1005.4 |
| 20260506080133 | 9 | 218 | 1.6 | 1.6 | 0.03 | 1.07 | 1.50 | 98 | 1005.4 |
| 20260506073503 | 10 | 310 | 1.6 | 1.6 | 0.05 | 1.04 | 1.45 | 98 | 1005.2 |
| 20260506073402 | 10 | 310 | 1.6 | 3.2 | 0.05 | 1.04 | 1.45 | 98 | 1005.2 |
| 20260506073302 | 10 | 314 | 6.4 | 6.4 | 0.05 | 1.04 | 1.45 | 98 | 1005.2 |
| 20260506073202 | 10 | 325 | 4.8 | 4.8 | 0.05 | 1.04 | 1.45 | 98 | 1005.2 |
| 20260506073102 | 10 | 327 | 3.2 | 3.2 | 0.05 | 1.04 | 1.45 | 98 | 1005.2 |
| 20260506073002 | 10 | 327 | 3.2 | 3.2 | 0.05 | 1.04 | 1.45 | 98 | 1005.2 |
| 20260506072903 | 10 | 321 | 4.8 | 4.8 | 0.05 | 1.04 | 1.45 | 98 | 1005.2 |
| 20260506072803 | 10 | 324 | 4.8 | 4.8 | 0.05 | 1.04 | 1.45 | 98 | 1005.2 |
| 20260506072702 | 10 | 326 | 3.2 | 3.2 | 0.05 | 1.04 | 1.45 | 98 | 1005.2 |
| 20260506072602 | 10 | 326 | 4.8 | 4.8 | 0.05 | 1.04 | 1.45 | 98 | 1005.2 |
| 20260506072503 | 10 | 326 | 3.2 | 3.2 | 0.05 | 1.04 | 1.45 | 98 | 1005.2 |
| 20260506072402 | 10 | 325 | 3.2 | 3.2 | 0.05 | 1.04 | 1.45 | 98 | 1005.1 |
| 20260506072253 | 10 | 325 | 4.8 | 4.8 | 0.05 | 1.04 | 1.45 | 98 | 1005.1 |
| 20260506072152 | 10 | 325 | 1.6 | 3.2 | 0.05 | 1.04 | 1.45 | 98 | 1005.2 |
| 20260506072052 | 10 | 325 | 3.2 | 3.2 | 0.05 | 1.04 | 1.45 | 98 | 1005.1 |
| 20260506071952 | 10 | 326 | 1.6 | 1.6 | 0.05 | 1.04 | 1.45 | 98 | 1005.2 |
| 20260506071852 | 10 | 328 | 3.2 | 3.2 | 0.08 | 1.04 | 1.45 | 98 | 1005.1 |
| 20260506071753 | 10 | 328 | 4.8 | 6.4 | 0.08 | 1.04 | 1.45 | 98 | 1005.1 |
| 20260506071656 | 10 | 324 | 3.2 | 3.2 | 0.08 | 1.04 | 1.45 | 98 | 1005.2 |
| 20260506071542 | 10 | 324 | 1.6 | 3.2 | 0.08 | 1.04 | 1.45 | 98 | 1005.1 |
| 20260506071442 | 10 | 323 | 3.2 | 4.8 | 0.08 | 1.04 | 1.45 | 98 | 1005.2 |
| 20260506071343 | 10 | 336 | 4.8 | 4.8 | 0.08 | 1.04 | 1.45 | 98 | 1005.1 |
| 20260506071242 | 10 | 328 | 3.2 | 3.2 | 0.08 | 1.04 | 1.45 | 98 | 1005.1 |
| 20260506071142 | 10 | 328 | 3.2 | 3.2 | 0.08 | 1.04 | 1.45 | 98 | 1005.1 |
| 20260506071042 | 10 | 329 | 4.8 | 4.8 | 0.08 | 1.04 | 1.45 | 98 | 1005.1 |
| 20260506070932 | 10 | 329 | 4.8 | 4.8 | 0.08 | 1.04 | 1.45 | 98 | 1005.1 |
| 20260506070832 | 10 | 329 | 3.2 | 3.2 | 0.08 | 1.04 | 1.45 | 98 | 1005.1 |
| 20260506070732 | 10 | 329 | 1.6 | 1.6 | 0.08 | 1.04 | 1.45 | 98 | 1005.1 |
| 20260506070633 | 10 | 0.0 | 0.0 | 0.08 | 1.04 | 1.45 | 98 | 1005.1 | |
| 20260506070532 | 10 | 331 | 3.2 | 3.2 | 0.08 | 1.04 | 1.45 | 98 | 1005.1 |
| 20260506070432 | 10 | 331 | 1.6 | 3.2 | 0.08 | 1.04 | 1.45 | 98 | 1005.1 |
| 20260506070332 | 10 | 331 | 1.6 | 1.6 | 0.08 | 1.04 | 1.45 | 98 | 1005.1 |
| 20260506070233 | 9 | 331 | 4.8 | 4.8 | 0.08 | 1.04 | 1.45 | 98 | 1005.1 |
| 20260506070132 | 9 | 0.0 | 0.0 | 0.08 | 1.04 | 1.45 | 98 | 1005.1 | |
| 20260506062422 | 9 | 0.0 | 1.6 | 0.05 | 0.99 | 1.37 | 98 | 1005.0 | |
| 20260506062322 | 9 | 0.0 | 0.0 | 0.05 | 0.99 | 1.37 | 98 | 1004.9 | |
| 20260506062223 | 9 | 0.0 | 0.0 | 0.05 | 0.99 | 1.37 | 98 | 1004.9 | |
| 20260506062122 | 9 | 0.0 | 0.0 | 0.05 | 0.99 | 1.37 | 98 | 1005.0 | |
| 20260506062022 | 9 | 355 | 1.6 | 1.6 | 0.05 | 0.99 | 1.37 | 98 | 1005.0 |
| 20260506061922 | 9 | 355 | 3.2 | 3.2 | 0.03 | 0.97 | 1.35 | 98 | 1004.9 |
| 20260506061823 | 9 | 0.0 | 0.0 | 0.03 | 0.97 | 1.35 | 98 | 1005.0 | |
| 20260506061722 | 9 | 0.0 | 0.0 | 0.03 | 0.97 | 1.35 | 98 | 1004.9 | |
| 20260506061622 | 9 | 19 | 1.6 | 1.6 | 0.05 | 0.97 | 1.35 | 98 | 1004.9 |
| 20260506061523 | 9 | 0.0 | 0.0 | 0.05 | 0.97 | 1.35 | 98 | 1004.9 | |
| 20260506061422 | 9 | 0.0 | 0.0 | 0.05 | 0.97 | 1.35 | 98 | 1004.9 | |
| 20260506061322 | 9 | 19 | 1.6 | 3.2 | 0.05 | 0.97 | 1.32 | 98 | 1004.9 |
| 20260506061222 | 9 | 0.0 | 0.0 | 0.05 | 0.97 | 1.32 | 98 | 1004.9 | |
| 20260506061123 | 9 | 0.0 | 0.0 | 0.05 | 0.97 | 1.32 | 98 | 1004.8 | |
| 20260506061022 | 9 | 0.0 | 0.0 | 0.05 | 0.97 | 1.32 | 98 | 1004.9 | |
| 20260506060922 | 9 | 0.0 | 0.0 | 0.05 | 0.97 | 1.30 | 98 | 1004.8 | |
| 20260506060822 | 9 | 0.0 | 0.0 | 0.05 | 0.97 | 1.30 | 98 | 1004.8 | |
| 20260506060723 | 9 | 0.0 | 0.0 | 0.05 | 0.97 | 1.30 | 98 | 1004.8 | |
| 20260506060622 | 9 | 0.0 | 0.0 | 0.05 | 0.97 | 1.30 | 98 | 1004.8 | |
| 20260506060522 | 9 | 0.0 | 0.0 | 0.05 | 0.97 | 1.30 | 98 | 1004.8 | |
| 20260506060422 | 9 | 0.0 | 0.0 | 0.05 | 0.97 | 1.30 | 98 | 1004.8 | |
| 20260506060322 | 9 | 0.0 | 0.0 | 0.05 | 0.97 | 1.27 | 98 | 1004.9 | |
| 20260506060222 | 9 | 0.0 | 0.0 | 0.05 | 0.97 | 1.27 | 98 | 1004.8 | |
| 20260506060122 | 9 | 22 | 3.2 | 3.2 | 0.05 | 0.97 | 1.27 | 98 | 1004.8 |
| 20260506051322 | 9 | 0.0 | 0.0 | 0.05 | 0.91 | 1.17 | 98 | 1004.7 | |
| 20260506051222 | 9 | 0.0 | 0.0 | 0.05 | 0.91 | 1.17 | 98 | 1004.6 | |
| 20260506051122 | 9 | 17 | 1.6 | 1.6 | 0.05 | 0.91 | 1.17 | 98 | 1004.7 |
| 20260506051023 | 9 | 0.0 | 0.0 | 0.05 | 0.91 | 1.17 | 98 | 1004.6 | |
| 20260506050922 | 9 | 0.0 | 0.0 | 0.05 | 0.91 | 1.17 | 98 | 1004.7 | |
| 20260506050823 | 9 | 0.0 | 0.0 | 0.05 | 0.91 | 1.17 | 98 | 1004.7 | |
| 20260506050722 | 9 | 0.0 | 0.0 | 0.05 | 0.91 | 1.17 | 98 | 1004.7 | |
| 20260506050622 | 9 | 0.0 | 0.0 | 0.05 | 0.91 | 1.17 | 98 | 1004.7 | |
| 20260506050523 | 9 | 0.0 | 0.0 | 0.05 | 0.91 | 1.17 | 98 | 1004.7 | |
| 20260506050422 | 9 | 0.0 | 0.0 | 0.05 | 0.89 | 1.14 | 98 | 1004.7 | |
| 20260506050322 | 9 | 0.0 | 0.0 | 0.05 | 0.89 | 1.14 | 98 | 1004.7 | |
| 20260506050222 | 9 | 0.0 | 0.0 | 0.05 | 0.89 | 1.14 | 98 | 1004.7 | |
| 20260506050123 | 9 | 0.0 | 0.0 | 0.05 | 0.89 | 1.14 | 98 | 1004.7 | |
| 20260506045122 | 9 | 0.0 | 0.0 | 0.05 | 0.89 | 1.12 | 98 | 1004.7 | |
| 20260506045022 | 9 | 0.0 | 0.0 | 0.05 | 0.89 | 1.12 | 98 | 1004.7 | |
| 20260506044922 | 9 | 0.0 | 0.0 | 0.05 | 0.89 | 1.09 | 98 | 1004.7 | |
| 20260506044822 | 9 | 0.0 | 0.0 | 0.05 | 0.89 | 1.09 | 98 | 1004.7 | |
| 20260506044722 | 9 | 35 | 1.6 | 1.6 | 0.05 | 0.89 | 1.09 | 98 | 1004.7 |
| 20260506044622 | 9 | 0.0 | 0.0 | 0.05 | 0.89 | 1.09 | 98 | 1004.7 | |
| 20260506044522 | 9 | 0.0 | 0.0 | 0.05 | 0.89 | 1.09 | 98 | 1004.7 | |
| 20260506044422 | 9 | 0.0 | 0.0 | 0.05 | 0.89 | 1.09 | 98 | 1004.8 | |
| 20260506044323 | 9 | 0.0 | 0.0 | 0.05 | 0.89 | 1.09 | 98 | 1004.8 | |
| 20260506044222 | 9 | 0.0 | 0.0 | 0.05 | 0.89 | 1.09 | 98 | 1004.7 | |
| 20260506044122 | 9 | 0.0 | 0.0 | 0.05 | 0.89 | 1.09 | 98 | 1004.8 | |
| 20260506044022 | 9 | 0.0 | 0.0 | 0.05 | 0.89 | 1.07 | 98 | 1004.8 | |
| 20260506043923 | 9 | 39 | 1.6 | 1.6 | 0.05 | 0.89 | 1.07 | 98 | 1004.7 |
| 20260506043822 | 9 | 37 | 1.6 | 1.6 | 0.05 | 0.89 | 1.07 | 98 | 1004.7 |
| 20260506043722 | 9 | 0.0 | 0.0 | 0.05 | 0.89 | 1.07 | 98 | 1004.7 | |
| 20260506043622 | 9 | 0.0 | 0.0 | 0.05 | 0.89 | 1.07 | 98 | 1004.7 | |
| 20260506043522 | 9 | 0.0 | 0.0 | 0.05 | 0.89 | 1.07 | 98 | 1004.7 | |
| 20260506043422 | 9 | 0.0 | 0.0 | 0.05 | 0.89 | 1.07 | 98 | 1004.7 | |
| 20260506043322 | 9 | 0.0 | 0.0 | 0.08 | 0.89 | 1.07 | 98 | 1004.8 | |
| 20260506043223 | 9 | 35 | 1.6 | 3.2 | 0.08 | 0.89 | 1.07 | 98 | 1004.7 |
| 20260506043122 | 9 | 0.0 | 0.0 | 0.08 | 0.89 | 1.07 | 98 | 1004.7 | |
| 20260506043022 | 9 | 34 | 1.6 | 1.6 | 0.08 | 0.89 | 1.07 | 98 | 1004.7 |
| 20260506042922 | 9 | 0.0 | 0.0 | 0.05 | 0.89 | 1.04 | 98 | 1004.7 | |
| 20260506042822 | 9 | 0.0 | 0.0 | 0.05 | 0.89 | 1.04 | 98 | 1004.6 | |
| 20260506042722 | 9 | 0.0 | 0.0 | 0.05 | 0.89 | 1.04 | 98 | 1004.6 | |
| 20260506042622 | 9 | 0.0 | 0.0 | 0.05 | 0.89 | 1.04 | 98 | 1004.6 | |
| 20260506042522 | 9 | 0.0 | 0.0 | 0.05 | 0.89 | 1.04 | 98 | 1004.7 | |
| 20260506042422 | 9 | 0.0 | 0.0 | 0.05 | 0.89 | 1.04 | 98 | 1004.7 | |
| 20260506042322 | 9 | 52 | 1.6 | 1.6 | 0.05 | 0.89 | 1.04 | 98 | 1004.7 |
| 20260506042222 | 9 | 0.0 | 0.0 | 0.05 | 0.89 | 1.04 | 98 | 1004.7 | |
| 20260506042123 | 9 | 45 | 3.2 | 3.2 | 0.05 | 0.89 | 1.04 | 98 | 1004.7 |
| 20260506042022 | 9 | 0.0 | 0.0 | 0.05 | 0.89 | 1.04 | 98 | 1004.7 | |
| 20260506041922 | 9 | 0.0 | 0.0 | 0.05 | 0.89 | 1.04 | 98 | 1004.7 | |
| 20260506041822 | 9 | 0.0 | 0.0 | 0.05 | 0.89 | 1.02 | 98 | 1004.7 | |
| 20260506041723 | 9 | 42 | 1.6 | 1.6 | 0.05 | 0.89 | 1.02 | 98 | 1004.7 |
| 20260506041622 | 9 | 43 | 3.2 | 3.2 | 0.05 | 0.89 | 1.02 | 98 | 1004.7 |
| 20260506041522 | 9 | 0.0 | 0.0 | 0.05 | 0.89 | 1.02 | 98 | 1004.7 | |
| 20260506041422 | 9 | 0.0 | 0.0 | 0.05 | 0.89 | 1.02 | 98 | 1004.6 | |
| 20260506041322 | 9 | 0.0 | 0.0 | 0.05 | 0.89 | 1.02 | 98 | 1004.6 | |
| 20260506041222 | 9 | 42 | 6.4 | 6.4 | 0.05 | 0.89 | 0.99 | 98 | 1004.7 |
| 20260506041122 | 9 | 338 | 3.2 | 4.8 | 0.05 | 0.89 | 0.99 | 98 | 1004.6 |
| 20260506041023 | 9 | 0.0 | 0.0 | 0.05 | 0.89 | 0.99 | 98 | 1004.7 | |
| 20260506040922 | 9 | 0.0 | 0.0 | 0.05 | 0.89 | 0.99 | 98 | 1004.7 | |
| 20260506040822 | 9 | 0.0 | 1.6 | 0.05 | 0.89 | 0.99 | 98 | 1004.7 | |
| 20260506040722 | 9 | 0.0 | 0.0 | 0.05 | 0.86 | 0.99 | 98 | 1004.7 | |
| 20260506040622 | 9 | 0.0 | 0.0 | 0.05 | 0.86 | 0.99 | 98 | 1004.7 | |
| 20260506040522 | 9 | 55 | 1.6 | 1.6 | 0.05 | 0.86 | 0.99 | 98 | 1004.7 |
| 20260506040422 | 9 | 20 | 1.6 | 1.6 | 0.05 | 0.86 | 0.99 | 98 | 1004.7 |
| 20260506040322 | 9 | 0.0 | 0.0 | 0.05 | 0.86 | 0.99 | 98 | 1004.7 | |
| 20260506040222 | 9 | 0.0 | 0.0 | 0.05 | 0.86 | 0.99 | 98 | 1004.7 | |
| 20260506040122 | 9 | 0.0 | 0.0 | 0.05 | 0.86 | 0.97 | 98 | 1004.7 | |
| 20260506040022 | 9 | 0.0 | 0.0 | 0.05 | 0.86 | 0.97 | 98 | 1004.7 | |
| 20260506035923 | 9 | 0.0 | 0.0 | 0.05 | 0.86 | 0.97 | 98 | 1004.7 | |
| 20260506035822 | 9 | 0.0 | 0.0 | 0.05 | 0.86 | 0.97 | 98 | 1004.8 | |
| 20260506035722 | 9 | 0.0 | 0.0 | 0.05 | 0.86 | 0.97 | 98 | 1004.7 | |
| 20260506035622 | 9 | 0.0 | 0.0 | 0.05 | 0.86 | 0.97 | 98 | 1004.8 | |
| 20260506035523 | 9 | 0.0 | 1.6 | 0.05 | 0.86 | 0.97 | 98 | 1004.7 | |
| 20260506035422 | 9 | 0.0 | 0.0 | 0.05 | 0.86 | 0.97 | 98 | 1004.8 | |
| 20260506035322 | 9 | 0.0 | 0.0 | 0.05 | 0.86 | 0.97 | 98 | 1004.8 | |
| 20260506035222 | 9 | 0.0 | 0.0 | 0.05 | 0.86 | 0.97 | 98 | 1004.8 | |
| 20260506035122 | 9 | 0.0 | 0.0 | 0.05 | 0.86 | 0.97 | 98 | 1004.8 | |
| 20260506035022 | 9 | 11 | 1.6 | 1.6 | 0.05 | 0.86 | 0.97 | 98 | 1004.8 |
| 20260506034922 | 9 | 11 | 1.6 | 3.2 | 0.05 | 0.86 | 0.97 | 98 | 1004.8 |
| 20260506034822 | 9 | 0.0 | 0.0 | 0.05 | 0.86 | 0.94 | 98 | 1004.7 | |
| 20260506034722 | 9 | 0.0 | 0.0 | 0.05 | 0.86 | 0.94 | 98 | 1004.7 | |
| 20260506034622 | 9 | 0.0 | 0.0 | 0.05 | 0.86 | 0.94 | 98 | 1004.7 | |
| 20260506034522 | 9 | 0.0 | 0.0 | 0.05 | 0.86 | 0.94 | 98 | 1004.7 | |
| 20260506034423 | 9 | 0.0 | 0.0 | 0.05 | 0.86 | 0.94 | 98 | 1004.7 | |
| 20260506034322 | 9 | 0.0 | 1.6 | 0.05 | 0.86 | 0.94 | 98 | 1004.7 | |
| 20260506034222 | 9 | 0.0 | 0.0 | 0.05 | 0.86 | 0.94 | 98 | 1004.7 | |
| 20260506034122 | 9 | 0.0 | 0.0 | 0.05 | 0.86 | 0.94 | 98 | 1004.7 | |
| 20260506034022 | 9 | 0.0 | 0.0 | 0.05 | 0.84 | 0.91 | 98 | 1004.7 | |
| 20260506033922 | 9 | 0.0 | 0.0 | 0.05 | 0.84 | 0.91 | 98 | 1004.7 | |
| 20260506033822 | 9 | 0.0 | 0.0 | 0.05 | 0.84 | 0.91 | 98 | 1004.7 | |
| 20260506033722 | 9 | 0.0 | 0.0 | 0.05 | 0.84 | 0.91 | 98 | 1004.7 | |
| 20260506033622 | 9 | 0.0 | 0.0 | 0.05 | 0.84 | 0.91 | 98 | 1004.7 | |
| 20260506033522 | 9 | 0.0 | 0.0 | 0.05 | 0.84 | 0.91 | 98 | 1004.7 | |
| 20260506033422 | 9 | 0.0 | 0.0 | 0.05 | 0.84 | 0.91 | 98 | 1004.8 | |
| 20260506033322 | 9 | 0.0 | 0.0 | 0.03 | 0.81 | 0.89 | 98 | 1004.9 | |
| 20260506033222 | 9 | 0.0 | 0.0 | 0.03 | 0.81 | 0.89 | 98 | 1004.9 | |
| 20260506033122 | 9 | 0.0 | 1.6 | 0.03 | 0.81 | 0.89 | 98 | 1004.8 | |
| 20260506033022 | 9 | 38 | 1.6 | 1.6 | 0.03 | 0.81 | 0.89 | 98 | 1004.9 |
| 20260506032921 | 9 | 0.0 | 0.0 | 0.03 | 0.81 | 0.89 | 98 | 1004.9 | |
| 20260506032822 | 9 | 0.0 | 0.0 | 0.03 | 0.81 | 0.89 | 98 | 1004.9 | |
| 20260506032722 | 9 | 47 | 3.2 | 3.2 | 0.03 | 0.81 | 0.89 | 98 | 1004.8 |
| 20260506032623 | 9 | 0.0 | 0.0 | 0.03 | 0.81 | 0.89 | 98 | 1004.8 | |
| 20260506032522 | 9 | 0.0 | 0.0 | 0.03 | 0.81 | 0.89 | 98 | 1004.9 | |
| 20260506032422 | 9 | 0.0 | 0.0 | 0.03 | 0.81 | 0.89 | 98 | 1004.8 | |
| 20260506032322 | 9 | 0.0 | 1.6 | 0.03 | 0.81 | 0.89 | 98 | 1004.8 | |
| 20260506032222 | 9 | 35 | 1.6 | 3.2 | 0.03 | 0.81 | 0.86 | 98 | 1004.9 |
| 20260506032122 | 9 | 0.0 | 0.0 | 0.03 | 0.81 | 0.86 | 98 | 1004.8 | |
| 20260506032022 | 9 | 35 | 4.8 | 4.8 | 0.05 | 0.81 | 0.86 | 98 | 1004.9 |
| 20260506031922 | 9 | 32 | 1.6 | 3.2 | 0.05 | 0.81 | 0.86 | 98 | 1004.8 |
| 20260506031822 | 9 | 0.0 | 0.0 | 0.05 | 0.81 | 0.84 | 98 | 1004.9 | |
| 20260506031722 | 9 | 0.0 | 0.0 | 0.05 | 0.81 | 0.84 | 98 | 1004.9 | |
| 20260506031622 | 9 | 24 | 1.6 | 1.6 | 0.05 | 0.81 | 0.84 | 98 | 1004.9 |
| 20260506031523 | 9 | 0.0 | 0.0 | 0.05 | 0.81 | 0.81 | 98 | 1004.9 | |
| 20260506031422 | 9 | 0.0 | 0.0 | 0.05 | 0.81 | 0.81 | 98 | 1004.9 | |
| 20260506031322 | 9 | 0.0 | 0.0 | 0.05 | 0.81 | 0.81 | 98 | 1004.9 | |
| 20260506031222 | 9 | 0.0 | 0.0 | 0.05 | 0.81 | 0.81 | 98 | 1005.0 | |
| 20260506031122 | 9 | 29 | 4.8 | 4.8 | 0.05 | 0.81 | 0.79 | 98 | 1005.0 |
| 20260506031022 | 9 | 0.0 | 0.0 | 0.05 | 0.81 | 0.79 | 98 | 1005.0 | |
| 20260506030922 | 10 | 0.0 | 0.0 | 0.05 | 0.81 | 0.79 | 98 | 1005.0 | |
| 20260506030822 | 10 | 0.0 | 0.0 | 0.05 | 0.81 | 0.79 | 98 | 1005.0 | |
| 20260506030722 | 10 | 0.0 | 0.0 | 0.05 | 0.81 | 0.79 | 98 | 1005.1 | |
| 20260506030622 | 10 | 0.0 | 0.0 | 0.05 | 0.81 | 0.79 | 98 | 1005.1 | |
| 20260506030522 | 10 | 0.0 | 0.0 | 0.05 | 0.81 | 0.79 | 98 | 1005.1 | |
| 20260506030423 | 10 | 0.0 | 0.0 | 0.05 | 0.81 | 0.79 | 98 | 1005.1 | |
| 20260506030321 | 10 | 0.0 | 0.0 | 0.05 | 0.81 | 0.79 | 98 | 1005.1 | |
| 20260506030222 | 10 | 0.0 | 0.0 | 0.05 | 0.81 | 0.79 | 98 | 1005.1 | |
| 20260506030122 | 10 | 34 | 1.6 | 1.6 | 0.05 | 0.81 | 0.79 | 98 | 1005.0 |
| 20260506030023 | 10 | 0.0 | 1.6 | 0.05 | 0.81 | 0.79 | 98 | 1005.1 | |
| 20260506025922 | 10 | 0.0 | 0.0 | 0.05 | 0.81 | 0.79 | 98 | 1005.1 | |
| 20260506025822 | 10 | 0.0 | 0.0 | 0.05 | 0.81 | 0.76 | 98 | 1005.1 | |
| 20260506025722 | 10 | 0.0 | 0.0 | 0.05 | 0.81 | 0.76 | 98 | 1005.1 | |
| 20260506025622 | 10 | 0.0 | 0.0 | 0.05 | 0.81 | 0.76 | 98 | 1005.1 | |
| 20260506025522 | 10 | 41 | 1.6 | 3.2 | 0.05 | 0.81 | 0.76 | 98 | 1005.1 |
| 20260506025422 | 10 | 0.0 | 0.0 | 0.05 | 0.81 | 0.76 | 98 | 1005.1 | |
| 20260506025323 | 10 | 43 | 1.6 | 1.6 | 0.05 | 0.81 | 0.76 | 98 | 1005.1 |
| 20260506025222 | 10 | 0.0 | 0.0 | 0.05 | 0.81 | 0.76 | 98 | 1005.2 | |
| 20260506025122 | 10 | 0.0 | 0.0 | 0.05 | 0.81 | 0.76 | 98 | 1005.1 | |
| 20260506025022 | 10 | 0.0 | 0.0 | 0.05 | 0.81 | 0.76 | 98 | 1005.1 | |
| 20260506024922 | 10 | 0.0 | 0.0 | 0.05 | 0.81 | 0.74 | 98 | 1005.1 | |
| 20260506024822 | 10 | 42 | 3.2 | 3.2 | 0.05 | 0.81 | 0.74 | 98 | 1005.2 |
| 20260506024722 | 10 | 0.0 | 0.0 | 0.05 | 0.81 | 0.74 | 98 | 1005.1 | |
| 20260506024622 | 10 | 0.0 | 0.0 | 0.05 | 0.81 | 0.74 | 98 | 1005.2 | |
| 20260506024522 | 10 | 0.0 | 0.0 | 0.05 | 0.81 | 0.74 | 98 | 1005.2 | |
| 20260506024422 | 10 | 0.0 | 0.0 | 0.05 | 0.81 | 0.74 | 98 | 1005.2 | |
| 20260506024322 | 10 | 36 | 1.6 | 1.6 | 0.05 | 0.81 | 0.74 | 98 | 1005.3 |
| 20260506024223 | 10 | 0.0 | 0.0 | 0.05 | 0.81 | 0.74 | 98 | 1005.3 | |
| 20260506024122 | 10 | 0.0 | 0.0 | 0.05 | 0.81 | 0.74 | 98 | 1005.2 | |
| 20260506024022 | 10 | 0.0 | 0.0 | 0.03 | 0.79 | 0.71 | 98 | 1005.3 | |
| 20260506023922 | 10 | 36 | 1.6 | 1.6 | 0.03 | 0.79 | 0.71 | 98 | 1005.3 |
| 20260506023822 | 10 | 0.0 | 0.0 | 0.03 | 0.79 | 0.71 | 98 | 1005.3 | |
| 20260506023722 | 10 | 0.0 | 0.0 | 0.03 | 0.79 | 0.71 | 98 | 1005.3 | |
| 20260506023622 | 10 | 0.0 | 0.0 | 0.03 | 0.79 | 0.71 | 98 | 1005.3 | |
| 20260506023522 | 10 | 0.0 | 0.0 | 0.03 | 0.79 | 0.71 | 98 | 1005.3 | |
| 20260506023422 | 10 | 0.0 | 0.0 | 0.03 | 0.79 | 0.71 | 98 | 1005.4 | |
| 20260506023322 | 10 | 0.0 | 0.0 | 0.03 | 0.79 | 0.71 | 98 | 1005.4 | |
| 20260506023222 | 10 | 0.0 | 0.0 | 0.03 | 0.79 | 0.71 | 98 | 1005.3 | |
| 20260506023122 | 10 | 0.0 | 0.0 | 0.03 | 0.79 | 0.71 | 98 | 1005.3 | |
| 20260506023022 | 10 | 0.0 | 0.0 | 0.03 | 0.79 | 0.71 | 98 | 1005.3 | |
| 20260506022922 | 10 | 0.0 | 0.0 | 0.03 | 0.79 | 0.71 | 98 | 1005.3 | |
| 20260506022822 | 10 | 0.0 | 0.0 | 0.03 | 0.79 | 0.71 | 98 | 1005.4 | |
| 20260506022723 | 10 | 0.0 | 0.0 | 0.03 | 0.79 | 0.71 | 98 | 1005.3 | |
| 20260506022622 | 10 | 0.0 | 0.0 | 0.03 | 0.79 | 0.71 | 98 | 1005.4 | |
| 20260506022522 | 10 | 0.0 | 0.0 | 0.03 | 0.79 | 0.71 | 98 | 1005.4 | |
| 20260506022422 | 10 | 0.0 | 0.0 | 0.03 | 0.79 | 0.71 | 98 | 1005.4 | |
| 20260506022322 | 10 | 0.0 | 1.6 | 0.03 | 0.79 | 0.71 | 98 | 1005.4 | |
| 20260506022222 | 10 | 0.0 | 0.0 | 0.03 | 0.79 | 0.71 | 98 | 1005.4 | |
| 20260506022122 | 10 | 0.0 | 0.0 | 0.03 | 0.79 | 0.71 | 98 | 1005.4 | |
| 20260506022023 | 10 | 0.0 | 0.0 | 0.00 | 0.79 | 0.71 | 98 | 1005.4 | |
| 20260506021922 | 10 | 0.0 | 0.0 | 0.00 | 0.79 | 0.71 | 98 | 1005.4 | |
| 20260506021821 | 10 | 0.0 | 0.0 | 0.00 | 0.79 | 0.71 | 98 | 1005.5 | |
| 20260506021722 | 10 | 0.0 | 0.0 | 0.00 | 0.79 | 0.71 | 98 | 1005.4 | |
| 20260506021622 | 10 | 0.0 | 0.0 | 0.00 | 0.79 | 0.71 | 98 | 1005.4 | |
| 20260506021522 | 10 | 0.0 | 0.0 | 0.00 | 0.79 | 0.71 | 98 | 1005.5 | |
| 20260506021422 | 10 | 0.0 | 0.0 | 0.00 | 0.79 | 0.71 | 98 | 1005.5 | |
| 20260506021322 | 10 | 0.0 | 0.0 | 0.00 | 0.79 | 0.71 | 98 | 1005.5 | |
| 20260506021222 | 10 | 0.0 | 0.0 | 0.00 | 0.79 | 0.71 | 98 | 1005.5 | |
| 20260506021122 | 10 | 0.0 | 0.0 | 0.03 | 0.79 | 0.71 | 98 | 1005.5 | |
| 20260506021021 | 10 | 0.0 | 0.0 | 0.03 | 0.79 | 0.71 | 98 | 1005.5 | |
| 20260506020923 | 10 | 0.0 | 0.0 | 0.03 | 0.79 | 0.71 | 98 | 1005.5 | |
| 20260506020822 | 10 | 0.0 | 0.0 | 0.03 | 0.79 | 0.71 | 98 | 1005.5 | |
| 20260506020722 | 10 | 0.0 | 0.0 | 0.03 | 0.79 | 0.71 | 98 | 1005.5 | |
| 20260506020622 | 10 | 0.0 | 0.0 | 0.03 | 0.79 | 0.71 | 98 | 1005.5 | |
| 20260506020522 | 10 | 0.0 | 0.0 | 0.03 | 0.79 | 0.71 | 98 | 1005.5 | |
| 20260506020422 | 10 | 0.0 | 0.0 | 0.03 | 0.79 | 0.69 | 98 | 1005.5 | |
| 20260506020322 | 10 | 0.0 | 0.0 | 0.03 | 0.79 | 0.69 | 98 | 1005.6 | |
| 20260506020222 | 10 | 0.0 | 0.0 | 0.03 | 0.79 | 0.69 | 98 | 1005.5 | |
| 20260506020122 | 10 | 0.0 | 0.0 | 0.03 | 0.79 | 0.69 | 98 | 1005.6 | |
| 20260506020022 | 10 | 0.0 | 0.0 | 0.03 | 0.79 | 0.69 | 98 | 1005.6 | |
| 20260506015922 | 10 | 0.0 | 0.0 | 0.03 | 0.79 | 0.69 | 98 | 1005.6 | |
| 20260506015823 | 10 | 0.0 | 0.0 | 0.03 | 0.79 | 0.69 | 98 | 1005.6 | |
| 20260506015722 | 10 | 0.0 | 0.0 | 0.03 | 0.79 | 0.69 | 98 | 1005.6 | |
| 20260506015622 | 10 | 0.0 | 0.0 | 0.03 | 0.79 | 0.69 | 98 | 1005.6 | |
| 20260506015522 | 10 | 0.0 | 0.0 | 0.03 | 0.79 | 0.69 | 98 | 1005.6 | |
| 20260506015422 | 10 | 0.0 | 0.0 | 0.03 | 0.79 | 0.69 | 98 | 1005.6 | |
| 20260506015322 | 10 | 0.0 | 0.0 | 0.03 | 0.79 | 0.69 | 98 | 1005.6 | |
| 20260506015222 | 10 | 0.0 | 0.0 | 0.03 | 0.79 | 0.69 | 98 | 1005.6 | |
| 20260506015122 | 10 | 0.0 | 0.0 | 0.05 | 0.79 | 0.69 | 98 | 1005.6 | |
| 20260506015022 | 10 | 0.0 | 0.0 | 0.05 | 0.79 | 0.69 | 98 | 1005.6 | |
| 20260506014921 | 10 | 0.0 | 0.0 | 0.05 | 0.79 | 0.69 | 98 | 1005.6 | |
| 20260506014822 | 10 | 0.0 | 0.0 | 0.05 | 0.79 | 0.69 | 98 | 1005.6 | |
| 20260506014723 | 10 | 0.0 | 0.0 | 0.05 | 0.79 | 0.69 | 98 | 1005.6 | |
| 20260506014622 | 10 | 0.0 | 0.0 | 0.05 | 0.79 | 0.69 | 98 | 1005.6 | |
| 20260506014522 | 10 | 0.0 | 0.0 | 0.05 | 0.79 | 0.69 | 98 | 1005.6 | |
| 20260506014422 | 10 | 0.0 | 0.0 | 0.05 | 0.79 | 0.69 | 98 | 1005.6 | |
| 20260506014322 | 10 | 0.0 | 0.0 | 0.05 | 0.79 | 0.66 | 98 | 1005.6 | |
| 20260506014222 | 10 | 0.0 | 0.0 | 0.05 | 0.79 | 0.66 | 98 | 1005.7 | |
| 20260506014122 | 10 | 0.0 | 0.0 | 0.05 | 0.79 | 0.66 | 98 | 1005.6 | |
| 20260506014022 | 10 | 0.0 | 0.0 | 0.05 | 0.79 | 0.66 | 98 | 1005.7 | |
| 20260506013921 | 10 | 40 | 1.6 | 3.2 | 0.05 | 0.79 | 0.66 | 98 | 1005.6 |
| 20260506013822 | 10 | 0.0 | 0.0 | 0.05 | 0.79 | 0.66 | 98 | 1005.7 | |
| 20260506013722 | 10 | 0.0 | 0.0 | 0.08 | 0.79 | 0.66 | 98 | 1005.6 | |
| 20260506013623 | 10 | 0.0 | 0.0 | 0.08 | 0.79 | 0.66 | 98 | 1005.7 | |
| 20260506013522 | 10 | 16 | 3.2 | 4.8 | 0.08 | 0.79 | 0.66 | 98 | 1005.7 |
| 20260506013422 | 10 | 16 | 1.6 | 1.6 | 0.08 | 0.79 | 0.64 | 98 | 1005.7 |
| 20260506013322 | 10 | 0.0 | 0.0 | 0.08 | 0.79 | 0.64 | 98 | 1005.7 | |
| 20260506013222 | 10 | 0.0 | 0.0 | 0.08 | 0.79 | 0.64 | 98 | 1005.7 | |
| 20260506013121 | 10 | 0.0 | 0.0 | 0.08 | 0.79 | 0.64 | 98 | 1005.7 | |
| 20260506013022 | 10 | 0.0 | 0.0 | 0.08 | 0.79 | 0.64 | 98 | 1005.8 | |
| 20260506012922 | 10 | 32 | 3.2 | 3.2 | 0.10 | 0.79 | 0.64 | 98 | 1005.8 |
| 20260506012822 | 10 | 0.0 | 1.6 | 0.10 | 0.79 | 0.64 | 98 | 1005.7 | |
| 20260506012722 | 10 | 0.0 | 0.0 | 0.10 | 0.79 | 0.64 | 98 | 1005.8 | |
| 20260506012622 | 10 | 48 | 1.6 | 1.6 | 0.10 | 0.79 | 0.64 | 98 | 1005.7 |
| 20260506012522 | 10 | 0.0 | 0.0 | 0.10 | 0.79 | 0.64 | 98 | 1005.8 | |
| 20260506012422 | 10 | 45 | 3.2 | 3.2 | 0.10 | 0.79 | 0.64 | 98 | 1005.8 |
| 20260506012322 | 10 | 0.0 | 0.0 | 0.10 | 0.79 | 0.64 | 98 | 1005.8 | |
| 20260506012222 | 10 | 0.0 | 0.0 | 0.10 | 0.79 | 0.61 | 98 | 1005.8 | |
| 20260506012122 | 10 | 32 | 1.6 | 1.6 | 0.10 | 0.79 | 0.61 | 98 | 1005.8 |
| 20260506012022 | 10 | 0.0 | 0.0 | 0.10 | 0.79 | 0.61 | 98 | 1005.8 | |
| 20260506011922 | 10 | 0.0 | 0.0 | 0.10 | 0.79 | 0.61 | 98 | 1005.8 | |
| 20260506011822 | 10 | 0.0 | 0.0 | 0.10 | 0.79 | 0.61 | 98 | 1005.9 | |
| 20260506011722 | 10 | 0.0 | 0.0 | 0.10 | 0.79 | 0.61 | 98 | 1005.8 | |
| 20260506011622 | 10 | 28 | 1.6 | 3.2 | 0.10 | 0.79 | 0.61 | 98 | 1005.8 |
| 20260506011522 | 10 | 40 | 4.8 | 4.8 | 0.10 | 0.79 | 0.61 | 98 | 1005.9 |
| 20260506011423 | 10 | 48 | 3.2 | 4.8 | 0.10 | 0.79 | 0.61 | 98 | 1005.8 |
| 20260506011321 | 10 | 333 | 3.2 | 3.2 | 0.10 | 0.79 | 0.61 | 98 | 1005.8 |
| 20260506011221 | 10 | 48 | 4.8 | 4.8 | 0.10 | 0.79 | 0.61 | 98 | 1005.9 |
| 20260506011122 | 10 | 40 | 6.4 | 6.4 | 0.08 | 0.76 | 0.61 | 98 | 1005.8 |
| 20260506011022 | 10 | 0.0 | 0.0 | 0.10 | 0.76 | 0.61 | 98 | 1005.8 | |
| 20260506010922 | 10 | 0.0 | 0.0 | 0.10 | 0.76 | 0.61 | 98 | 1005.9 | |
| 20260506010821 | 10 | 0.0 | 0.0 | 0.10 | 0.76 | 0.61 | 98 | 1005.9 | |
| 20260506010722 | 10 | 54 | 4.8 | 4.8 | 0.10 | 0.76 | 0.61 | 98 | 1005.9 |
| 20260506010622 | 10 | 0.0 | 1.6 | 0.10 | 0.76 | 0.61 | 98 | 1005.9 | |
| 20260506010522 | 10 | 0.0 | 0.0 | 0.10 | 0.76 | 0.61 | 98 | 1006.0 | |
| 20260506010422 | 10 | 0.0 | 0.0 | 0.10 | 0.76 | 0.61 | 98 | 1006.0 | |
| 20260506010323 | 10 | 0.0 | 0.0 | 0.10 | 0.76 | 0.61 | 98 | 1006.0 | |
| 20260506010221 | 10 | 0.0 | 1.6 | 0.10 | 0.76 | 0.61 | 98 | 1006.0 | |
| 20260506010121 | 10 | 46 | 1.6 | 1.6 | 0.13 | 0.76 | 0.61 | 98 | 1006.0 |
| 20260506010022 | 10 | 42 | 3.2 | 3.2 | 0.13 | 0.76 | 0.58 | 98 | 1006.0 |
| 20260506005922 | 10 | 59 | 4.8 | 4.8 | 0.13 | 0.76 | 0.58 | 98 | 1006.0 |
| 20260506005822 | 10 | 0.0 | 0.0 | 0.13 | 0.76 | 0.58 | 98 | 1006.0 | |
| 20260506005722 | 10 | 0.0 | 0.0 | 0.13 | 0.76 | 0.58 | 98 | 1006.0 | |
| 20260506005622 | 10 | 0.0 | 0.0 | 0.13 | 0.76 | 0.58 | 98 | 1006.0 | |
| 20260506005522 | 10 | 0.0 | 0.0 | 0.15 | 0.76 | 0.58 | 98 | 1006.1 | |
| 20260506005421 | 10 | 0.0 | 0.0 | 0.15 | 0.76 | 0.58 | 98 | 1006.1 | |
| 20260506005321 | 10 | 0.0 | 0.0 | 0.15 | 0.76 | 0.58 | 98 | 1006.1 | |
| 20260506005223 | 10 | 0.0 | 1.6 | 0.15 | 0.76 | 0.58 | 98 | 1006.1 | |
| 20260506005122 | 10 | 61 | 1.6 | 3.2 | 0.13 | 0.74 | 0.56 | 98 | 1006.1 |
| 20260506005021 | 10 | 42 | 1.6 | 1.6 | 0.13 | 0.74 | 0.56 | 98 | 1006.1 |
| 20260506004922 | 10 | 0.0 | 0.0 | 0.13 | 0.74 | 0.56 | 98 | 1006.1 | |
| 20260506004822 | 10 | 0.0 | 0.0 | 0.13 | 0.74 | 0.56 | 98 | 1006.1 | |
| 20260506004721 | 10 | 0.0 | 0.0 | 0.13 | 0.74 | 0.56 | 98 | 1006.1 | |
| 20260506004622 | 10 | 0.0 | 0.0 | 0.13 | 0.74 | 0.56 | 98 | 1006.1 | |
| 20260506004522 | 10 | 0.0 | 0.0 | 0.13 | 0.74 | 0.56 | 98 | 1006.2 | |
| 20260506004422 | 10 | 0.0 | 1.6 | 0.13 | 0.74 | 0.56 | 98 | 1006.2 | |
| 20260506004322 | 10 | 0.0 | 0.0 | 0.10 | 0.71 | 0.53 | 98 | 1006.2 | |
| 20260506004221 | 10 | 0.0 | 0.0 | 0.10 | 0.71 | 0.53 | 98 | 1006.2 | |
| 20260506004122 | 10 | 38 | 1.6 | 1.6 | 0.13 | 0.71 | 0.53 | 98 | 1006.2 |
| 20260506004022 | 10 | 38 | 3.2 | 3.2 | 0.13 | 0.71 | 0.53 | 98 | 1006.2 |
| 20260506003922 | 10 | 47 | 1.6 | 1.6 | 0.13 | 0.71 | 0.53 | 98 | 1006.2 |
| 20260506003822 | 10 | 0.0 | 0.0 | 0.13 | 0.71 | 0.53 | 98 | 1006.2 | |
| 20260506003722 | 10 | 0.0 | 0.0 | 0.10 | 0.71 | 0.51 | 98 | 1006.2 | |
| 20260506003622 | 10 | 0.0 | 0.0 | 0.10 | 0.71 | 0.51 | 98 | 1006.2 | |
| 20260506003522 | 10 | 0.0 | 0.0 | 0.13 | 0.71 | 0.51 | 98 | 1006.2 | |
| 20260506003421 | 10 | 0.0 | 0.0 | 0.13 | 0.71 | 0.51 | 98 | 1006.2 | |
| 20260506003321 | 10 | 47 | 3.2 | 6.4 | 0.13 | 0.71 | 0.51 | 98 | 1006.3 |
| 20260506003222 | 10 | 0.0 | 3.2 | 0.13 | 0.71 | 0.51 | 98 | 1006.2 | |
| 20260506003121 | 10 | 0.0 | 0.0 | 0.13 | 0.71 | 0.51 | 98 | 1006.3 | |
| 20260506003022 | 10 | 35 | 1.6 | 1.6 | 0.13 | 0.71 | 0.51 | 98 | 1006.3 |
| 20260506002921 | 10 | 0.0 | 0.0 | 0.10 | 0.69 | 0.51 | 98 | 1006.3 | |
| 20260506002821 | 10 | 0.0 | 1.6 | 0.10 | 0.69 | 0.51 | 98 | 1006.3 | |
| 20260506002721 | 10 | 47 | 3.2 | 4.8 | 0.10 | 0.69 | 0.51 | 98 | 1006.3 |
| 20260506002622 | 10 | 40 | 1.6 | 3.2 | 0.10 | 0.69 | 0.51 | 98 | 1006.3 |
| 20260506002521 | 10 | 48 | 6.4 | 6.4 | 0.10 | 0.69 | 0.51 | 98 | 1006.3 |
| 20260506002422 | 10 | 337 | 3.2 | 3.2 | 0.10 | 0.69 | 0.51 | 98 | 1006.3 |
| 20260506002322 | 10 | 0.0 | 0.0 | 0.10 | 0.69 | 0.48 | 98 | 1006.3 | |
| 20260506002222 | 10 | 37 | 4.8 | 4.8 | 0.10 | 0.69 | 0.48 | 98 | 1006.3 |
| 20260506002122 | 10 | 49 | 3.2 | 3.2 | 0.10 | 0.69 | 0.48 | 98 | 1006.4 |
| 20260506002021 | 10 | 0.0 | 0.0 | 0.10 | 0.69 | 0.48 | 98 | 1006.4 | |
| 20260506001923 | 10 | 40 | 1.6 | 1.6 | 0.10 | 0.69 | 0.48 | 98 | 1006.4 |
| 20260506001821 | 10 | 0.0 | 0.0 | 0.10 | 0.69 | 0.48 | 98 | 1006.4 | |
| 20260506001722 | 10 | 0.0 | 0.0 | 0.10 | 0.69 | 0.48 | 98 | 1006.4 | |
| 20260506001622 | 10 | 0.0 | 0.0 | 0.10 | 0.69 | 0.48 | 98 | 1006.4 | |
| 20260506001522 | 10 | 38 | 1.6 | 1.6 | 0.10 | 0.69 | 0.46 | 98 | 1006.4 |
| 20260506001422 | 10 | 0.0 | 0.0 | 0.10 | 0.69 | 0.46 | 98 | 1006.4 | |
| 20260506001322 | 10 | 0.0 | 0.0 | 0.10 | 0.69 | 0.46 | 98 | 1006.4 | |
| 20260506001222 | 10 | 0.0 | 0.0 | 0.13 | 0.69 | 0.46 | 98 | 1006.5 | |
| 20260506001122 | 10 | 0.0 | 1.6 | 0.13 | 0.69 | 0.46 | 98 | 1006.4 | |
| 20260506001021 | 10 | 21 | 3.2 | 4.8 | 0.10 | 0.66 | 0.43 | 98 | 1006.5 |
| 20260506000921 | 10 | 34 | 6.4 | 6.4 | 0.10 | 0.66 | 0.43 | 98 | 1006.5 |
| 20260506000822 | 10 | 0.0 | 0.0 | 0.10 | 0.66 | 0.43 | 98 | 1006.5 | |
| 20260506000721 | 10 | 0.0 | 0.0 | 0.10 | 0.66 | 0.43 | 98 | 1006.5 | |
| 20260506000621 | 10 | 0.0 | 0.0 | 0.10 | 0.66 | 0.43 | 98 | 1006.5 | |
| 20260506000521 | 10 | 0.0 | 0.0 | 0.10 | 0.66 | 0.43 | 98 | 1006.5 | |
| 20260506000423 | 10 | 0.0 | 0.0 | 0.10 | 0.66 | 0.43 | 98 | 1006.5 | |
| 20260506000323 | 10 | 0.0 | 0.0 | 0.10 | 0.66 | 0.43 | 97 | 1006.5 | |
| 20260506000222 | 10 | 0.0 | 0.0 | 0.10 | 0.66 | 0.43 | 97 | 1006.5 | |
| 20260506000122 | 10 | 0.0 | 0.0 | 0.08 | 0.64 | 0.41 | 98 | 1006.6 | |
| 20260506000021 | 10 | 0.0 | 0.0 | 0.08 | 0.64 | 0.41 | 97 | 1006.5 | |
| 20260505235921 | 10 | 0.0 | 0.0 | 0.08 | 0.64 | 0.41 | 98 | 1006.5 | |
| 20260505235821 | 10 | 0.0 | 0.0 | 0.08 | 0.64 | 0.41 | 98 | 1006.6 | |
| 20260505235722 | 10 | 0.0 | 0.0 | 0.08 | 0.64 | 0.41 | 97 | 1006.6 | |
| 20260505235621 | 10 | 0.0 | 0.0 | 0.08 | 0.64 | 0.41 | 97 | 1006.6 | |
| 20260505235521 | 10 | 0.0 | 0.0 | 0.05 | 0.61 | 0.38 | 97 | 1006.6 | |
| 20260505235421 | 10 | 0.0 | 0.0 | 0.05 | 0.61 | 0.38 | 97 | 1006.6 | |
| 20260505235322 | 10 | 0.0 | 0.0 | 0.05 | 0.61 | 0.38 | 97 | 1006.7 | |
| 20260505235221 | 10 | 0.0 | 0.0 | 0.05 | 0.61 | 0.36 | 98 | 1006.6 | |
| 20260505235121 | 10 | 0.0 | 0.0 | 0.05 | 0.61 | 0.36 | 98 | 1006.7 | |
| 20260505235021 | 10 | 13 | 3.2 | 3.2 | 0.05 | 0.61 | 0.36 | 98 | 1006.7 |
| 20260505234921 | 10 | 0.0 | 0.0 | 0.05 | 0.61 | 0.36 | 98 | 1006.7 | |
| 20260505234821 | 10 | 0.0 | 0.0 | 0.05 | 0.61 | 0.36 | 98 | 1006.7 | |
| 20260505234721 | 10 | 0.0 | 0.0 | 0.05 | 0.61 | 0.36 | 98 | 1006.8 | |
| 20260505234622 | 10 | 0.0 | 0.0 | 0.05 | 0.61 | 0.33 | 98 | 1006.7 | |
| 20260505234522 | 10 | 0.0 | 0.0 | 0.08 | 0.61 | 0.33 | 98 | 1006.8 | |
| 20260505234421 | 10 | 0.0 | 0.0 | 0.08 | 0.61 | 0.33 | 98 | 1006.8 | |
| 20260505234321 | 10 | 0.0 | 0.0 | 0.08 | 0.61 | 0.33 | 98 | 1006.8 | |
| 20260505234222 | 10 | 0.0 | 0.0 | 0.08 | 0.61 | 0.33 | 98 | 1006.8 | |
| 20260505234121 | 10 | 0.0 | 0.0 | 0.05 | 0.61 | 0.33 | 98 | 1006.8 | |
| 20260505234021 | 10 | 35 | 1.6 | 1.6 | 0.05 | 0.61 | 0.33 | 98 | 1006.8 |
| 20260505233922 | 10 | 0.0 | 0.0 | 0.05 | 0.61 | 0.33 | 98 | 1006.8 | |
| 20260505233821 | 10 | 32 | 1.6 | 3.2 | 0.05 | 0.61 | 0.33 | 98 | 1006.8 |
| 20260505233721 | 10 | 0.0 | 0.0 | 0.05 | 0.61 | 0.33 | 98 | 1006.9 | |
| 20260505233622 | 10 | 45 | 1.6 | 3.2 | 0.05 | 0.61 | 0.33 | 98 | 1006.9 |
| 20260505233522 | 10 | 0.0 | 0.0 | 0.05 | 0.58 | 0.30 | 98 | 1006.9 | |
| 20260505233421 | 10 | 0.0 | 0.0 | 0.05 | 0.58 | 0.30 | 98 | 1006.9 | |
| 20260505233322 | 10 | 0.0 | 0.0 | 0.05 | 0.58 | 0.30 | 98 | 1006.9 | |
| 20260505233221 | 10 | 0.0 | 0.0 | 0.05 | 0.58 | 0.30 | 98 | 1006.9 | |
| 20260505233122 | 10 | 0.0 | 0.0 | 0.05 | 0.58 | 0.30 | 98 | 1006.9 | |
| 20260505233021 | 10 | 0.0 | 0.0 | 0.05 | 0.58 | 0.28 | 98 | 1006.9 | |
| 20260505232922 | 10 | 0.0 | 0.0 | 0.05 | 0.58 | 0.28 | 98 | 1006.9 | |
| 20260505232821 | 10 | 0.0 | 0.0 | 0.05 | 0.58 | 0.28 | 98 | 1006.9 | |
| 20260505232721 | 10 | 0.0 | 0.0 | 0.05 | 0.58 | 0.28 | 98 | 1006.9 | |
| 20260505232621 | 10 | 0.0 | 0.0 | 0.05 | 0.58 | 0.28 | 98 | 1006.9 | |
| 20260505232521 | 10 | 0.0 | 0.0 | 0.05 | 0.58 | 0.28 | 98 | 1006.9 | |
| 20260505232422 | 10 | 0.0 | 0.0 | 0.05 | 0.58 | 0.25 | 98 | 1006.9 | |
| 20260505232321 | 10 | 0.0 | 0.0 | 0.05 | 0.58 | 0.25 | 98 | 1006.9 | |
| 20260505232221 | 10 | 0.0 | 0.0 | 0.05 | 0.58 | 0.25 | 98 | 1006.9 | |
| 20260505232121 | 10 | 0.0 | 0.0 | 0.05 | 0.58 | 0.25 | 98 | 1006.9 | |
| 20260505232022 | 10 | 0.0 | 1.6 | 0.05 | 0.58 | 0.25 | 98 | 1007.0 | |
| 20260505231922 | 10 | 0.0 | 0.0 | 0.05 | 0.58 | 0.23 | 98 | 1007.0 | |
| 20260505231821 | 10 | 5 | 3.2 | 4.8 | 0.05 | 0.58 | 0.23 | 98 | 1006.9 |
| 20260505231722 | 10 | 0.0 | 0.0 | 0.05 | 0.58 | 0.23 | 98 | 1007.0 | |
| 20260505231607 | 10 | 340 | 1.6 | 1.6 | 0.05 | 0.58 | 0.23 | 98 | 1006.9 |
| 20260505231507 | 10 | 0.0 | 0.0 | 0.05 | 0.58 | 0.23 | 98 | 1006.9 | |
| 20260505231411 | 10 | 0.0 | 0.0 | 0.05 | 0.58 | 0.23 | 98 | 1006.9 | |
| 20260505231258 | 10 | 0.0 | 0.0 | 0.05 | 0.61 | 0.23 | 98 | 1007.0 | |
| 20260505231157 | 10 | 0.0 | 0.0 | 0.05 | 0.58 | 0.23 | 98 | 1006.9 | |
| 20260505231057 | 10 | 0.0 | 0.0 | 0.05 | 0.58 | 0.23 | 98 | 1006.9 | |
| 20260505230957 | 10 | 338 | 3.2 | 3.2 | 0.05 | 0.58 | 0.23 | 98 | 1006.9 |
| 20260505230858 | 10 | 0.0 | 0.0 | 0.05 | 0.58 | 0.23 | 98 | 1007.0 | |
| 20260505230757 | 10 | 0.0 | 0.0 | 0.05 | 0.58 | 0.20 | 98 | 1007.0 | |
| 20260505230657 | 10 | 0.0 | 0.0 | 0.05 | 0.58 | 0.20 | 98 | 1007.0 | |
| 20260505230558 | 10 | 0.0 | 0.0 | 0.05 | 0.58 | 0.20 | 98 | 1007.0 | |
| 20260505230457 | 10 | 0.0 | 0.0 | 0.05 | 0.58 | 0.20 | 98 | 1007.0 | |
| 20260505230357 | 10 | 0.0 | 0.0 | 0.05 | 0.58 | 0.20 | 98 | 1007.0 | |
| 20260505230257 | 10 | 0.0 | 1.6 | 0.05 | 0.58 | 0.20 | 98 | 1007.0 | |
| 20260505230158 | 10 | 339 | 3.2 | 4.8 | 0.05 | 0.58 | 0.20 | 98 | 1007.0 |
| 20260505230057 | 10 | 336 | 1.6 | 1.6 | 0.05 | 0.58 | 0.18 | 98 | 1007.0 |
| 20260505225957 | 10 | 336 | 4.8 | 4.8 | 0.08 | 0.58 | 0.18 | 97 | 1007.0 |
| 20260505225857 | 10 | 336 | 4.8 | 4.8 | 0.08 | 0.58 | 0.18 | 97 | 1007.0 |
| 20260505225758 | 10 | 336 | 3.2 | 3.2 | 0.08 | 0.58 | 0.18 | 97 | 1007.0 |
| 20260505225657 | 10 | 0.0 | 0.0 | 0.08 | 0.58 | 0.18 | 97 | 1007.0 | |
| 20260505225557 | 10 | 336 | 3.2 | 3.2 | 0.08 | 0.58 | 0.18 | 97 | 1007.1 |
| 20260505225457 | 10 | 0.0 | 0.0 | 0.08 | 0.58 | 0.18 | 97 | 1007.1 | |
| 20260505225357 | 10 | 0.0 | 0.0 | 0.08 | 0.58 | 0.15 | 97 | 1007.1 | |
| 20260505225258 | 10 | 335 | 1.6 | 1.6 | 0.08 | 0.58 | 0.15 | 97 | 1007.1 |
| 20260505225157 | 10 | 335 | 3.2 | 3.2 | 0.08 | 0.58 | 0.15 | 97 | 1007.1 |
| 20260505225058 | 10 | 0.0 | 0.0 | 0.08 | 0.58 | 0.15 | 97 | 1007.1 | |
| 20260505224957 | 10 | 334 | 1.6 | 3.2 | 0.08 | 0.58 | 0.15 | 97 | 1007.1 |
| 20260505224857 | 10 | 0.0 | 0.0 | 0.08 | 0.58 | 0.15 | 97 | 1007.1 | |
| 20260505224757 | 10 | 0.0 | 0.0 | 0.08 | 0.58 | 0.15 | 97 | 1007.1 | |
| 20260505224658 | 10 | 0.0 | 0.0 | 0.08 | 0.58 | 0.15 | 97 | 1007.1 | |
| 20260505224557 | 10 | 0.0 | 0.0 | 0.08 | 0.58 | 0.15 | 97 | 1007.1 | |
| 20260505224457 | 10 | 0.0 | 0.0 | 0.05 | 0.56 | 0.15 | 97 | 1007.1 | |
| 20260505224358 | 10 | 333 | 3.2 | 3.2 | 0.05 | 0.56 | 0.15 | 97 | 1007.1 |
| 20260505224247 | 10 | 333 | 1.6 | 1.6 | 0.05 | 0.56 | 0.15 | 97 | 1007.1 |
| 20260505224147 | 10 | 333 | 3.2 | 4.8 | 0.05 | 0.56 | 0.15 | 97 | 1007.1 |
| 20260505224047 | 10 | 338 | 4.8 | 4.8 | 0.05 | 0.56 | 0.15 | 97 | 1007.1 |
| 20260505223948 | 10 | 337 | 1.6 | 1.6 | 0.05 | 0.56 | 0.13 | 97 | 1007.1 |
| 20260505223847 | 10 | 0.0 | 0.0 | 0.05 | 0.56 | 0.13 | 97 | 1007.1 | |
| 20260505223747 | 10 | 0.0 | 0.0 | 0.05 | 0.56 | 0.13 | 97 | 1007.2 | |
| 20260505223648 | 10 | 0.0 | 0.0 | 0.05 | 0.56 | 0.13 | 97 | 1007.2 | |
| 20260505223548 | 10 | 335 | 1.6 | 1.6 | 0.05 | 0.56 | 0.13 | 97 | 1007.2 |
| 20260505223447 | 10 | 0.0 | 0.0 | 0.05 | 0.56 | 0.13 | 97 | 1007.2 | |
| 20260505223348 | 10 | 0.0 | 0.0 | 0.05 | 0.56 | 0.13 | 97 | 1007.3 | |
| 20260505223247 | 10 | 0.0 | 0.0 | 0.05 | 0.56 | 0.13 | 97 | 1007.3 | |
| 20260505223147 | 10 | 0.0 | 0.0 | 0.05 | 0.56 | 0.13 | 97 | 1007.3 | |
| 20260505223048 | 10 | 0.0 | 0.0 | 0.05 | 0.53 | 0.10 | 97 | 1007.3 | |
| 20260505222947 | 10 | 0.0 | 0.0 | 0.05 | 0.53 | 0.10 | 97 | 1007.3 | |
| 20260505222848 | 10 | 0.0 | 0.0 | 0.05 | 0.53 | 0.10 | 97 | 1007.3 | |
| 20260505222748 | 10 | 0.0 | 0.0 | 0.05 | 0.53 | 0.10 | 97 | 1007.2 | |
| 20260505222647 | 10 | 336 | 4.8 | 4.8 | 0.05 | 0.53 | 0.08 | 97 | 1007.3 |
| 20260505222547 | 10 | 0.0 | 0.0 | 0.05 | 0.53 | 0.08 | 97 | 1007.3 | |
| 20260505222448 | 10 | 339 | 1.6 | 1.6 | 0.05 | 0.53 | 0.08 | 97 | 1007.3 |
| 20260505222348 | 10 | 339 | 3.2 | 3.2 | 0.05 | 0.53 | 0.08 | 97 | 1007.3 |
| 20260505222247 | 10 | 340 | 1.6 | 3.2 | 0.05 | 0.53 | 0.08 | 97 | 1007.3 |
| 20260505222147 | 10 | 340 | 1.6 | 1.6 | 0.05 | 0.53 | 0.08 | 97 | 1007.3 |
| 20260505222048 | 10 | 0.0 | 0.0 | 0.05 | 0.53 | 0.05 | 97 | 1007.3 | |
| 20260505221947 | 10 | 0.0 | 0.0 | 0.05 | 0.53 | 0.05 | 97 | 1007.3 | |
| 20260505221847 | 10 | 0.0 | 0.0 | 0.05 | 0.53 | 0.05 | 97 | 1007.3 | |
| 20260505221748 | 10 | 0.0 | 0.0 | 0.05 | 0.53 | 0.05 | 97 | 1007.3 | |
| 20260505221647 | 10 | 0.0 | 0.0 | 0.05 | 0.53 | 0.05 | 97 | 1007.3 | |
| 20260505221548 | 10 | 0.0 | 0.0 | 0.05 | 0.53 | 0.05 | 97 | 1007.3 | |
| 20260505221447 | 10 | 340 | 1.6 | 3.2 | 0.05 | 0.53 | 0.05 | 97 | 1007.3 |
| 20260505221348 | 10 | 340 | 3.2 | 3.2 | 0.05 | 0.53 | 0.05 | 97 | 1007.3 |
| 20260505221248 | 10 | 336 | 1.6 | 1.6 | 0.05 | 0.53 | 0.05 | 97 | 1007.3 |
| 20260505221147 | 10 | 0.0 | 0.0 | 0.05 | 0.53 | 0.05 | 97 | 1007.3 | |
| 20260505221047 | 10 | 336 | 3.2 | 3.2 | 0.05 | 0.53 | 0.05 | 97 | 1007.3 |
| 20260505220947 | 10 | 336 | 3.2 | 3.2 | 0.05 | 0.53 | 0.05 | 97 | 1007.3 |
| 20260505220837 | 11 | 336 | 1.6 | 1.6 | 0.05 | 0.51 | 0.03 | 97 | 1007.4 |
| 20260505220737 | 11 | 0.0 | 0.0 | 0.05 | 0.51 | 0.03 | 97 | 1007.4 | |
| 20260505220638 | 11 | 0.0 | 0.0 | 0.05 | 0.51 | 0.03 | 97 | 1007.3 | |
| 20260505220537 | 11 | 0.0 | 0.0 | 0.05 | 0.51 | 0.00 | 97 | 1007.3 | |
| 20260505220437 | 11 | 336 | 3.2 | 3.2 | 0.05 | 0.51 | 0.00 | 97 | 1007.3 |
| 20260505220338 | 11 | 0.0 | 0.0 | 0.05 | 0.51 | 0.00 | 97 | 1007.3 | |
| 20260505220238 | 11 | 0.0 | 0.0 | 0.05 | 0.51 | 0.00 | 97 | 1007.3 | |
| 20260505220137 | 11 | 0.0 | 0.0 | 0.05 | 0.51 | 0.00 | 97 | 1007.3 | |
| 20260505220037 | 11 | 0.0 | 0.0 | 0.05 | 0.51 | 0.00 | 97 | 1007.4 | |
| 20260505215922 | 11 | 0.0 | 0.0 | 0.05 | 0.51 | 1.93 | 97 | 1007.4 | |
| 20260505215822 | 11 | 0.0 | 0.0 | 0.05 | 0.51 | 1.93 | 97 | 1007.4 | |
| 20260505215722 | 11 | 336 | 4.8 | 4.8 | 0.05 | 0.51 | 1.93 | 97 | 1007.4 |
| 20260505215622 | 11 | 0.0 | 0.0 | 0.05 | 0.51 | 1.93 | 97 | 1007.4 | |
| 20260505215523 | 11 | 335 | 1.6 | 1.6 | 0.05 | 0.51 | 1.93 | 97 | 1007.4 |
| 20260505215422 | 11 | 334 | 3.2 | 3.2 | 0.05 | 0.51 | 1.93 | 97 | 1007.5 |
| 20260505215322 | 11 | 333 | 3.2 | 4.8 | 0.05 | 0.51 | 1.93 | 97 | 1007.4 |
| 20260505215222 | 11 | 335 | 1.6 | 1.6 | 0.08 | 0.51 | 1.93 | 97 | 1007.5 |
| 20260505215123 | 11 | 0.0 | 1.6 | 0.08 | 0.51 | 1.93 | 97 | 1007.5 | |
| 20260505215022 | 11 | 335 | 1.6 | 4.8 | 0.08 | 0.51 | 1.91 | 97 | 1007.5 |
| 20260505214922 | 11 | 333 | 1.6 | 1.6 | 0.08 | 0.51 | 1.91 | 97 | 1007.5 |
| 20260505214822 | 11 | 0.0 | 0.0 | 0.08 | 0.51 | 1.91 | 97 | 1007.6 | |
| 20260505214722 | 11 | 0.0 | 0.0 | 0.08 | 0.51 | 1.91 | 97 | 1007.6 | |
| 20260505214622 | 11 | 340 | 1.6 | 1.6 | 0.08 | 0.51 | 1.88 | 97 | 1007.6 |
| 20260505214522 | 11 | 0.0 | 0.0 | 0.08 | 0.51 | 1.88 | 97 | 1007.6 | |
| 20260505214423 | 11 | 0.0 | 0.0 | 0.08 | 0.51 | 1.88 | 97 | 1007.6 | |
| 20260505214322 | 11 | 341 | 1.6 | 3.2 | 0.08 | 0.51 | 1.88 | 97 | 1007.6 |
| 20260505214222 | 11 | 0.0 | 0.0 | 0.08 | 0.51 | 1.88 | 97 | 1007.6 | |
| 20260505214122 | 11 | 0.0 | 0.0 | 0.08 | 0.51 | 1.85 | 97 | 1007.6 | |
| 20260505214022 | 11 | 0.0 | 0.0 | 0.08 | 0.51 | 1.85 | 97 | 1007.7 | |
| 20260505213922 | 11 | 0.0 | 0.0 | 0.08 | 0.51 | 1.85 | 97 | 1007.6 | |
| 20260505213822 | 11 | 342 | 1.6 | 3.2 | 0.10 | 0.51 | 1.85 | 97 | 1007.6 |
| 20260505213722 | 11 | 0.0 | 0.0 | 0.10 | 0.51 | 1.83 | 97 | 1007.7 | |
| 20260505213622 | 11 | 0.0 | 0.0 | 0.10 | 0.51 | 1.83 | 97 | 1007.7 | |
| 20260505213522 | 11 | 342 | 3.2 | 3.2 | 0.10 | 0.51 | 1.83 | 97 | 1007.7 |
| 20260505213422 | 11 | 0.0 | 0.0 | 0.10 | 0.51 | 1.83 | 97 | 1007.7 | |
| 20260505213323 | 11 | 0.0 | 0.0 | 0.10 | 0.51 | 1.83 | 97 | 1007.6 | |
| 20260505213222 | 11 | 0.0 | 0.0 | 0.10 | 0.51 | 1.83 | 97 | 1007.6 | |
| 20260505213122 | 11 | 0.0 | 1.6 | 0.10 | 0.51 | 1.83 | 97 | 1007.6 | |
| 20260505213022 | 11 | 0.0 | 0.0 | 0.10 | 0.51 | 1.80 | 97 | 1007.6 | |
| 20260505212922 | 11 | 0.0 | 0.0 | 0.10 | 0.51 | 1.80 | 97 | 1007.6 | |
| 20260505212822 | 11 | 0.0 | 0.0 | 0.10 | 0.51 | 1.80 | 97 | 1007.6 | |
| 20260505212722 | 11 | 0.0 | 0.0 | 0.10 | 0.51 | 1.78 | 97 | 1007.6 | |
| 20260505212622 | 11 | 0.0 | 0.0 | 0.10 | 0.51 | 1.78 | 97 | 1007.7 | |
| 20260505212522 | 11 | 0.0 | 0.0 | 0.08 | 0.48 | 1.75 | 97 | 1007.7 | |
| 20260505212422 | 11 | 0.0 | 0.0 | 0.08 | 0.48 | 1.75 | 97 | 1007.7 | |
| 20260505212322 | 11 | 0.0 | 0.0 | 0.08 | 0.48 | 1.75 | 97 | 1007.7 | |
| 20260505212223 | 11 | 0.0 | 0.0 | 0.08 | 0.48 | 1.75 | 97 | 1007.7 | |
| 20260505212122 | 11 | 0.0 | 0.0 | 0.08 | 0.48 | 1.75 | 97 | 1007.7 | |
| 20260505212022 | 11 | 0.0 | 0.0 | 0.08 | 0.48 | 1.75 | 97 | 1007.7 | |
| 20260505211922 | 11 | 0.0 | 0.0 | 0.08 | 0.48 | 1.75 | 97 | 1007.7 | |
| 20260505211822 | 11 | 0.0 | 0.0 | 0.08 | 0.48 | 1.75 | 97 | 1007.6 | |
| 20260505211722 | 11 | 0.0 | 0.0 | 0.08 | 0.48 | 1.73 | 97 | 1007.7 | |
| 20260505211622 | 11 | 0.0 | 0.0 | 0.08 | 0.48 | 1.73 | 97 | 1007.7 | |
| 20260505211522 | 11 | 0.0 | 0.0 | 0.08 | 0.48 | 1.73 | 97 | 1007.7 | |
| 20260505211422 | 11 | 0.0 | 0.0 | 0.08 | 0.48 | 1.70 | 97 | 1007.7 | |
| 20260505211322 | 11 | 0.0 | 0.0 | 0.08 | 0.48 | 1.68 | 97 | 1007.7 | |
| 20260505211222 | 11 | 0.0 | 0.0 | 0.08 | 0.48 | 1.68 | 97 | 1007.7 | |
| 20260505211123 | 11 | 0.0 | 0.0 | 0.08 | 0.48 | 1.65 | 97 | 1007.7 | |
| 20260505211022 | 11 | 0.0 | 0.0 | 0.08 | 0.48 | 1.65 | 97 | 1007.7 | |
| 20260505210922 | 11 | 0.0 | 0.0 | 0.08 | 0.48 | 1.65 | 97 | 1007.7 | |
| 20260505210822 | 11 | 0.0 | 0.0 | 0.08 | 0.48 | 1.65 | 97 | 1007.7 | |
| 20260505210722 | 11 | 0.0 | 0.0 | 0.08 | 0.48 | 1.63 | 97 | 1007.7 | |
| 20260505210622 | 11 | 0.0 | 0.0 | 0.05 | 0.46 | 1.60 | 97 | 1007.7 | |
| 20260505210522 | 11 | 0.0 | 0.0 | 0.05 | 0.46 | 1.57 | 97 | 1007.7 | |
| 20260505210422 | 11 | 0.0 | 0.0 | 0.05 | 0.46 | 1.57 | 97 | 1007.7 | |
| 20260505210322 | 11 | 0.0 | 0.0 | 0.05 | 0.46 | 1.57 | 97 | 1007.7 | |
| 20260505210222 | 11 | 0.0 | 0.0 | 0.05 | 0.46 | 1.55 | 97 | 1007.7 | |
| 20260505210122 | 11 | 0.0 | 0.0 | 0.05 | 0.46 | 1.55 | 97 | 1007.7 | |
| 20260505210023 | 11 | 0.0 | 0.0 | 0.05 | 0.46 | 1.52 | 97 | 1007.7 | |
| 20260505205922 | 11 | 0.0 | 0.0 | 0.05 | 0.43 | 1.50 | 97 | 1007.7 | |
| 20260505205822 | 11 | 0.0 | 0.0 | 0.05 | 0.43 | 1.50 | 97 | 1007.7 | |
| 20260505205722 | 11 | 0.0 | 0.0 | 0.05 | 0.43 | 1.47 | 97 | 1007.7 | |
| 20260505205623 | 11 | 0.0 | 0.0 | 0.05 | 0.43 | 1.47 | 97 | 1007.8 | |
| 20260505205522 | 11 | 0.0 | 0.0 | 0.05 | 0.43 | 1.45 | 97 | 1007.8 | |
| 20260505205422 | 11 | 54 | 1.6 | 3.2 | 0.05 | 0.43 | 1.45 | 97 | 1007.8 |
| 20260505205322 | 11 | 0.0 | 0.0 | 0.05 | 0.43 | 1.45 | 97 | 1007.8 | |
| 20260505205222 | 11 | 0.0 | 0.0 | 0.05 | 0.43 | 1.42 | 97 | 1007.8 | |
| 20260505205122 | 11 | 49 | 6.4 | 6.4 | 0.05 | 0.43 | 1.42 | 97 | 1007.8 |
| 20260505205022 | 11 | 0.0 | 0.0 | 0.05 | 0.43 | 1.42 | 97 | 1007.8 | |
| 20260505204923 | 11 | 28 | 1.6 | 3.2 | 0.05 | 0.43 | 1.40 | 97 | 1007.8 |
| 20260505204822 | 11 | 0.0 | 0.0 | 0.05 | 0.43 | 1.40 | 97 | 1007.8 | |
| 20260505204722 | 11 | 0.0 | 0.0 | 0.05 | 0.43 | 1.40 | 97 | 1007.8 | |
| 20260505204622 | 11 | 0.0 | 0.0 | 0.05 | 0.43 | 1.40 | 97 | 1007.8 | |
| 20260505204523 | 11 | 0.0 | 0.0 | 0.05 | 0.43 | 1.40 | 97 | 1007.8 | |
| 20260505204422 | 11 | 0.0 | 0.0 | 0.05 | 0.43 | 1.37 | 97 | 1007.8 | |
| 20260505204322 | 11 | 0.0 | 0.0 | 0.05 | 0.43 | 1.37 | 97 | 1007.8 | |
| 20260505204222 | 11 | 0.0 | 0.0 | 0.05 | 0.43 | 1.37 | 97 | 1007.8 | |
| 20260505204122 | 11 | 0.0 | 0.0 | 0.05 | 0.43 | 1.37 | 97 | 1007.8 | |
| 20260505204022 | 11 | 0.0 | 0.0 | 0.05 | 0.43 | 1.37 | 97 | 1007.8 | |
| 20260505203922 | 11 | 0.0 | 0.0 | 0.05 | 0.43 | 1.37 | 97 | 1007.8 | |
| 20260505203823 | 11 | 0.0 | 0.0 | 0.05 | 0.41 | 1.37 | 97 | 1007.8 | |
| 20260505203722 | 11 | 0.0 | 0.0 | 0.05 | 0.41 | 1.37 | 97 | 1007.8 | |
| 20260505203622 | 11 | 0.0 | 0.0 | 0.05 | 0.41 | 1.37 | 97 | 1007.8 | |
| 20260505203522 | 11 | 0.0 | 0.0 | 0.05 | 0.41 | 1.37 | 97 | 1007.8 | |
| 20260505203423 | 11 | 0.0 | 0.0 | 0.05 | 0.41 | 1.37 | 97 | 1007.8 | |
| 20260505203322 | 11 | 0.0 | 0.0 | 0.05 | 0.41 | 1.35 | 97 | 1007.8 | |
| 20260505203222 | 11 | 0.0 | 0.0 | 0.05 | 0.41 | 1.35 | 97 | 1007.7 | |
| 20260505203122 | 11 | 0.0 | 0.0 | 0.05 | 0.41 | 1.35 | 97 | 1007.8 | |
| 20260505203022 | 11 | 0.0 | 0.0 | 0.05 | 0.41 | 1.35 | 97 | 1007.7 | |
| 20260505202922 | 11 | 0.0 | 0.0 | 0.05 | 0.41 | 1.35 | 97 | 1007.7 | |
| 20260505202822 | 11 | 0.0 | 0.0 | 0.05 | 0.41 | 1.32 | 97 | 1007.8 | |
| 20260505202722 | 11 | 0.0 | 0.0 | 0.05 | 0.41 | 1.32 | 97 | 1007.8 | |
| 20260505202622 | 11 | 0.0 | 0.0 | 0.05 | 0.41 | 1.32 | 97 | 1007.8 | |
| 20260505202522 | 11 | 0.0 | 0.0 | 0.05 | 0.41 | 1.32 | 97 | 1007.8 | |
| 20260505202422 | 11 | 0.0 | 0.0 | 0.05 | 0.41 | 1.32 | 97 | 1007.7 | |
| 20260505202322 | 11 | 0.0 | 0.0 | 0.05 | 0.41 | 1.32 | 97 | 1007.8 | |
| 20260505202222 | 11 | 0.0 | 0.0 | 0.05 | 0.41 | 1.30 | 97 | 1007.8 | |
| 20260505202122 | 11 | 0.0 | 0.0 | 0.05 | 0.41 | 1.30 | 97 | 1007.8 | |
| 20260505202022 | 11 | 0.0 | 0.0 | 0.05 | 0.41 | 1.30 | 97 | 1007.8 | |
| 20260505201922 | 11 | 0.0 | 0.0 | 0.05 | 0.41 | 1.30 | 97 | 1007.8 | |
| 20260505201822 | 11 | 0.0 | 0.0 | 0.05 | 0.41 | 1.27 | 97 | 1007.8 | |
| 20260505201722 | 11 | 0.0 | 0.0 | 0.05 | 0.41 | 1.27 | 97 | 1007.7 | |
| 20260505201623 | 11 | 0.0 | 0.0 | 0.05 | 0.41 | 1.27 | 97 | 1007.7 | |
| 20260505201522 | 11 | 0.0 | 0.0 | 0.05 | 0.41 | 1.27 | 97 | 1007.7 | |
| 20260505201422 | 11 | 0.0 | 0.0 | 0.05 | 0.41 | 1.27 | 97 | 1007.7 | |
| 20260505201322 | 11 | 0.0 | 0.0 | 0.05 | 0.41 | 1.27 | 97 | 1007.7 | |
| 20260505201222 | 11 | 5 | 1.6 | 3.2 | 0.05 | 0.41 | 1.27 | 97 | 1007.8 |
| 20260505201122 | 11 | 0.0 | 0.0 | 0.05 | 0.41 | 1.27 | 97 | 1007.7 | |
| 20260505201022 | 11 | 0.0 | 0.0 | 0.05 | 0.41 | 1.27 | 97 | 1007.7 | |
| 20260505200922 | 11 | 0.0 | 0.0 | 0.05 | 0.41 | 1.27 | 97 | 1007.7 | |
| 20260505200822 | 11 | 0.0 | 0.0 | 0.08 | 0.41 | 1.27 | 97 | 1007.7 | |
| 20260505200722 | 11 | 0.0 | 0.0 | 0.08 | 0.41 | 1.27 | 97 | 1007.7 | |
| 20260505200622 | 11 | 0.0 | 0.0 | 0.08 | 0.41 | 1.24 | 97 | 1007.8 | |
| 20260505200523 | 11 | 0.0 | 0.0 | 0.08 | 0.41 | 1.24 | 97 | 1007.8 | |
| 20260505200422 | 11 | 0.0 | 0.0 | 0.08 | 0.41 | 1.24 | 97 | 1007.7 | |
| 20260505200322 | 11 | 0.0 | 0.0 | 0.08 | 0.41 | 1.24 | 97 | 1007.7 | |
| 20260505200222 | 11 | 0.0 | 0.0 | 0.08 | 0.41 | 1.24 | 97 | 1007.7 | |
| 20260505200122 | 11 | 0.0 | 0.0 | 0.08 | 0.41 | 1.24 | 97 | 1007.7 | |
| 20260505200022 | 11 | 0.0 | 0.0 | 0.08 | 0.41 | 1.24 | 97 | 1007.7 | |
| 20260505195922 | 11 | 0.0 | 0.0 | 0.08 | 0.41 | 1.24 | 97 | 1007.7 | |
| 20260505195822 | 11 | 0.0 | 0.0 | 0.08 | 0.41 | 1.24 | 97 | 1007.7 | |
| 20260505195722 | 11 | 0.0 | 0.0 | 0.05 | 0.38 | 1.22 | 97 | 1007.7 | |
| 20260505195622 | 11 | 0.0 | 0.0 | 0.05 | 0.38 | 1.22 | 97 | 1007.7 | |
| 20260505195521 | 11 | 0.0 | 0.0 | 0.05 | 0.38 | 1.22 | 97 | 1007.7 | |
| 20260505195423 | 11 | 0.0 | 0.0 | 0.05 | 0.38 | 1.22 | 97 | 1007.7 | |
| 20260505195322 | 11 | 0.0 | 0.0 | 0.05 | 0.38 | 1.22 | 97 | 1007.7 | |
| 20260505195222 | 11 | 0.0 | 0.0 | 0.05 | 0.38 | 1.22 | 97 | 1007.7 | |
| 20260505195122 | 11 | 0.0 | 0.0 | 0.05 | 0.38 | 1.22 | 97 | 1007.7 | |
| 20260505195022 | 11 | 51 | 1.6 | 1.6 | 0.05 | 0.38 | 1.22 | 97 | 1007.7 |
| 20260505194922 | 11 | 51 | 1.6 | 3.2 | 0.05 | 0.36 | 1.19 | 97 | 1007.7 |
| 20260505194822 | 11 | 44 | 1.6 | 3.2 | 0.05 | 0.36 | 1.19 | 97 | 1007.7 |
| 20260505194722 | 11 | 0.0 | 0.0 | 0.05 | 0.36 | 1.19 | 97 | 1007.7 | |
| 20260505194622 | 11 | 0.0 | 0.0 | 0.05 | 0.36 | 1.19 | 97 | 1007.7 | |
| 20260505194522 | 11 | 0.0 | 0.0 | 0.05 | 0.36 | 1.19 | 96 | 1007.7 | |
| 20260505194422 | 11 | 55 | 4.8 | 4.8 | 0.05 | 0.36 | 1.19 | 96 | 1007.7 |
| 20260505194323 | 11 | 53 | 3.2 | 3.2 | 0.08 | 0.36 | 1.19 | 96 | 1007.7 |
| 20260505194222 | 11 | 0.0 | 0.0 | 0.08 | 0.36 | 1.19 | 97 | 1007.7 | |
| 20260505194122 | 11 | 0.0 | 0.0 | 0.08 | 0.36 | 1.19 | 97 | 1007.7 | |
| 20260505194021 | 11 | 316 | 1.6 | 6.4 | 0.08 | 0.36 | 1.17 | 97 | 1007.7 |
| 20260505193922 | 11 | 0.0 | 0.0 | 0.08 | 0.36 | 1.17 | 97 | 1007.7 | |
| 20260505193822 | 11 | 49 | 6.4 | 6.4 | 0.08 | 0.36 | 1.17 | 97 | 1007.7 |
| 20260505193722 | 11 | 63 | 3.2 | 4.8 | 0.08 | 0.36 | 1.17 | 97 | 1007.7 |
| 20260505193622 | 11 | 48 | 3.2 | 3.2 | 0.08 | 0.36 | 1.17 | 97 | 1007.7 |
| 20260505193522 | 11 | 0.0 | 0.0 | 0.08 | 0.36 | 1.17 | 97 | 1007.7 | |
| 20260505193422 | 11 | 0.0 | 0.0 | 0.08 | 0.36 | 1.17 | 97 | 1007.8 | |
| 20260505193322 | 11 | 0.0 | 1.6 | 0.08 | 0.36 | 1.17 | 97 | 1007.7 | |
| 20260505193223 | 11 | 36 | 3.2 | 3.2 | 0.08 | 0.36 | 1.17 | 97 | 1007.7 |
| 20260505193122 | 11 | 12 | 1.6 | 3.2 | 0.08 | 0.36 | 1.17 | 97 | 1007.8 |
| 20260505193021 | 11 | 0.0 | 0.0 | 0.08 | 0.36 | 1.17 | 97 | 1007.7 | |
| 20260505192922 | 11 | 0.0 | 0.0 | 0.08 | 0.36 | 1.17 | 97 | 1007.7 | |
| 20260505192823 | 11 | 0.0 | 0.0 | 0.08 | 0.36 | 1.17 | 97 | 1007.7 | |
| 20260505192721 | 11 | 45 | 3.2 | 4.8 | 0.08 | 0.36 | 1.14 | 96 | 1007.7 |
| 20260505192622 | 11 | 0.0 | 0.0 | 0.08 | 0.36 | 1.14 | 96 | 1007.7 | |
| 20260505192522 | 11 | 35 | 3.2 | 3.2 | 0.08 | 0.36 | 1.14 | 96 | 1007.7 |
| 20260505192422 | 11 | 0.0 | 0.0 | 0.08 | 0.36 | 1.14 | 96 | 1007.7 | |
| 20260505192322 | 11 | 46 | 1.6 | 1.6 | 0.08 | 0.36 | 1.14 | 96 | 1007.7 |
| 20260505192222 | 11 | 0.0 | 0.0 | 0.05 | 0.33 | 1.12 | 96 | 1007.7 | |
| 20260505192123 | 11 | 0.0 | 0.0 | 0.05 | 0.33 | 1.12 | 96 | 1007.7 | |
| 20260505192021 | 11 | 0.0 | 0.0 | 0.05 | 0.33 | 1.12 | 96 | 1007.7 | |
| 20260505191922 | 11 | 0.0 | 0.0 | 0.05 | 0.33 | 1.12 | 96 | 1007.7 | |
| 20260505191822 | 11 | 0.0 | 0.0 | 0.05 | 0.33 | 1.12 | 96 | 1007.7 | |
| 20260505191722 | 11 | 0.0 | 0.0 | 0.05 | 0.33 | 1.09 | 96 | 1007.7 | |
| 20260505191622 | 11 | 0.0 | 0.0 | 0.05 | 0.33 | 1.09 | 96 | 1007.7 | |
| 20260505191522 | 11 | 0.0 | 0.0 | 0.05 | 0.33 | 1.09 | 96 | 1007.7 | |
| 20260505191422 | 11 | 0.0 | 0.0 | 0.05 | 0.33 | 1.09 | 96 | 1007.7 | |
| 20260505191322 | 11 | 0.0 | 0.0 | 0.05 | 0.33 | 1.09 | 96 | 1007.7 | |
| 20260505191221 | 11 | 0.0 | 0.0 | 0.05 | 0.33 | 1.09 | 96 | 1007.7 | |
| 20260505191122 | 11 | 0.0 | 0.0 | 0.05 | 0.33 | 1.09 | 96 | 1007.7 | |
| 20260505191022 | 11 | 0.0 | 1.6 | 0.05 | 0.33 | 1.09 | 96 | 1007.7 | |
| 20260505190922 | 11 | 40 | 1.6 | 1.6 | 0.05 | 0.33 | 1.09 | 96 | 1007.7 |
| 20260505190822 | 11 | 0.0 | 0.0 | 0.05 | 0.33 | 1.07 | 96 | 1007.7 | |
| 20260505190722 | 11 | 37 | 4.8 | 4.8 | 0.05 | 0.33 | 1.07 | 96 | 1007.7 |
| 20260505190622 | 11 | 46 | 1.6 | 1.6 | 0.05 | 0.33 | 1.07 | 96 | 1007.7 |
| 20260505190522 | 11 | 0.0 | 0.0 | 0.05 | 0.33 | 1.04 | 96 | 1007.7 | |
| 20260505190422 | 11 | 0.0 | 1.6 | 0.05 | 0.33 | 1.04 | 96 | 1007.7 | |
| 20260505190322 | 11 | 29 | 3.2 | 3.2 | 0.05 | 0.33 | 1.04 | 96 | 1007.7 |
| 20260505190221 | 11 | 8 | 3.2 | 3.2 | 0.05 | 0.33 | 1.04 | 96 | 1007.7 |
| 20260505190121 | 11 | 0.0 | 0.0 | 0.05 | 0.33 | 1.04 | 96 | 1007.7 | |
| 20260505190022 | 11 | 0.0 | 0.0 | 0.05 | 0.33 | 1.02 | 96 | 1007.7 | |
| 20260505185923 | 11 | 0.0 | 0.0 | 0.05 | 0.33 | 1.02 | 96 | 1007.7 | |
| 20260505185821 | 11 | 0.0 | 0.0 | 0.05 | 0.33 | 1.02 | 96 | 1007.7 | |
| 20260505185721 | 11 | 0.0 | 0.0 | 0.05 | 0.33 | 0.99 | 96 | 1007.7 | |
| 20260505185622 | 11 | 0.0 | 0.0 | 0.05 | 0.33 | 0.99 | 96 | 1007.7 | |
| 20260505185522 | 11 | 0.0 | 0.0 | 0.05 | 0.33 | 0.99 | 96 | 1007.7 | |
| 20260505185422 | 11 | 0.0 | 0.0 | 0.05 | 0.33 | 0.99 | 96 | 1007.6 | |
| 20260505185322 | 11 | 0.0 | 0.0 | 0.05 | 0.33 | 0.97 | 96 | 1007.7 | |
| 20260505185222 | 11 | 0.0 | 0.0 | 0.05 | 0.33 | 0.97 | 96 | 1007.7 | |
| 20260505185122 | 11 | 0.0 | 0.0 | 0.05 | 0.33 | 0.97 | 96 | 1007.7 | |
| 20260505185022 | 11 | 0.0 | 0.0 | 0.05 | 0.33 | 0.94 | 96 | 1007.6 | |
| 20260505184922 | 11 | 0.0 | 1.6 | 0.05 | 0.33 | 0.94 | 96 | 1007.7 | |
| 20260505184823 | 11 | 33 | 1.6 | 1.6 | 0.03 | 0.30 | 0.91 | 96 | 1007.7 |
| 20260505184722 | 11 | 0.0 | 0.0 | 0.03 | 0.30 | 0.91 | 96 | 1007.6 | |
| 20260505184621 | 11 | 0.0 | 0.0 | 0.03 | 0.30 | 0.91 | 96 | 1007.7 | |
| 20260505184522 | 11 | 0.0 | 0.0 | 0.03 | 0.30 | 0.89 | 96 | 1007.6 | |
| 20260505184422 | 11 | 0.0 | 0.0 | 0.03 | 0.30 | 0.89 | 96 | 1007.7 | |
| 20260505184322 | 11 | 0.0 | 0.0 | 0.00 | 0.28 | 0.89 | 96 | 1007.7 | |
| 20260505184222 | 11 | 40 | 4.8 | 6.4 | 0.00 | 0.28 | 0.89 | 96 | 1007.7 |
| 20260505184122 | 11 | 0.0 | 0.0 | 0.00 | 0.28 | 0.89 | 96 | 1007.7 | |
| 20260505184021 | 11 | 42 | 1.6 | 1.6 | 0.00 | 0.28 | 0.89 | 96 | 1007.7 |
| 20260505183921 | 11 | 0.0 | 0.0 | 0.03 | 0.28 | 0.86 | 96 | 1007.8 | |
| 20260505183822 | 11 | 39 | 1.6 | 3.2 | 0.03 | 0.28 | 0.86 | 96 | 1007.7 |
| 20260505183722 | 11 | 0.0 | 0.0 | 0.03 | 0.28 | 0.84 | 96 | 1007.8 | |
| 20260505183622 | 11 | 0.0 | 0.0 | 0.03 | 0.28 | 0.84 | 96 | 1007.7 | |
| 20260505183522 | 11 | 0.0 | 0.0 | 0.03 | 0.28 | 0.84 | 96 | 1007.8 | |
| 20260505183422 | 11 | 0.0 | 0.0 | 0.03 | 0.28 | 0.84 | 96 | 1007.7 | |
| 20260505183322 | 11 | 0.0 | 0.0 | 0.03 | 0.30 | 0.84 | 96 | 1007.7 | |
| 20260505183222 | 11 | 0.0 | 0.0 | 0.03 | 0.30 | 0.81 | 96 | 1007.7 | |
| 20260505183122 | 11 | 0.0 | 0.0 | 0.03 | 0.30 | 0.81 | 96 | 1007.8 | |
| 20260505183022 | 11 | 0.0 | 0.0 | 0.03 | 0.30 | 0.81 | 95 | 1007.7 | |
| 20260505182921 | 11 | 0.0 | 0.0 | 0.03 | 0.30 | 0.81 | 95 | 1007.7 | |
| 20260505182821 | 11 | 0.0 | 0.0 | 0.03 | 0.33 | 0.79 | 95 | 1007.7 | |
| 20260505182721 | 11 | 0.0 | 0.0 | 0.03 | 0.33 | 0.79 | 95 | 1007.7 | |
| 20260505182622 | 11 | 0.0 | 0.0 | 0.03 | 0.33 | 0.79 | 95 | 1007.7 | |
| 20260505182521 | 12 | 0.0 | 0.0 | 0.03 | 0.33 | 0.79 | 95 | 1007.8 | |
| 20260505182421 | 12 | 0.0 | 0.0 | 0.03 | 0.33 | 0.79 | 95 | 1007.7 | |
| 20260505182321 | 12 | 342 | 1.6 | 1.6 | 0.03 | 0.33 | 0.79 | 95 | 1007.7 |
| 20260505182222 | 12 | 0.0 | 1.6 | 0.03 | 0.33 | 0.79 | 95 | 1007.7 | |
| 20260505182122 | 12 | 0.0 | 0.0 | 0.03 | 0.33 | 0.79 | 95 | 1007.7 | |
| 20260505182021 | 12 | 339 | 4.8 | 4.8 | 0.03 | 0.33 | 0.79 | 95 | 1007.7 |
| 20260505181922 | 12 | 331 | 3.2 | 3.2 | 0.03 | 0.33 | 0.79 | 95 | 1007.7 |
| 20260505181821 | 12 | 331 | 3.2 | 3.2 | 0.03 | 0.33 | 0.79 | 95 | 1007.7 |
| 20260505181721 | 12 | 335 | 4.8 | 4.8 | 0.03 | 0.33 | 0.76 | 95 | 1007.8 |
| 20260505181622 | 12 | 355 | 3.2 | 3.2 | 0.03 | 0.33 | 0.76 | 95 | 1007.7 |
| 20260505181522 | 12 | 0.0 | 0.0 | 0.03 | 0.33 | 0.76 | 95 | 1007.7 | |
| 20260505181422 | 12 | 0.0 | 0.0 | 0.03 | 0.33 | 0.76 | 95 | 1007.8 | |
| 20260505181321 | 12 | 331 | 6.4 | 6.4 | 0.03 | 0.36 | 0.76 | 95 | 1007.7 |
| 20260505181221 | 12 | 330 | 6.4 | 6.4 | 0.03 | 0.36 | 0.76 | 95 | 1007.7 |
| 20260505181123 | 12 | 0.0 | 1.6 | 0.03 | 0.36 | 0.76 | 95 | 1007.7 | |
| 20260505181022 | 12 | 0.0 | 0.0 | 0.03 | 0.36 | 0.74 | 95 | 1007.7 | |
| 20260505180921 | 12 | 331 | 1.6 | 1.6 | 0.03 | 0.36 | 0.74 | 95 | 1007.8 |
| 20260505180822 | 12 | 0.0 | 0.0 | 0.03 | 0.36 | 0.74 | 95 | 1007.8 | |
| 20260505180721 | 12 | 328 | 1.6 | 3.2 | 0.03 | 0.36 | 0.74 | 95 | 1007.8 |
| 20260505180622 | 12 | 338 | 3.2 | 3.2 | 0.03 | 0.36 | 0.74 | 95 | 1007.8 |
| 20260505180521 | 12 | 338 | 4.8 | 4.8 | 0.03 | 0.36 | 0.74 | 95 | 1007.8 |
| 20260505180422 | 12 | 337 | 6.4 | 6.4 | 0.03 | 0.36 | 0.71 | 95 | 1007.8 |
| 20260505180322 | 12 | 0.0 | 0.0 | 0.03 | 0.36 | 0.71 | 94 | 1007.8 | |
| 20260505180222 | 12 | 336 | 3.2 | 3.2 | 0.03 | 0.36 | 0.71 | 94 | 1007.8 |
| 20260505180121 | 12 | 0.0 | 0.0 | 0.03 | 0.36 | 0.71 | 94 | 1007.8 | |
| 20260505180022 | 12 | 336 | 6.4 | 6.4 | 0.03 | 0.36 | 0.71 | 94 | 1007.8 |
| 20260505175922 | 12 | 347 | 1.6 | 1.6 | 0.03 | 0.36 | 0.71 | 94 | 1007.8 |
| 20260505175822 | 12 | 335 | 1.6 | 1.6 | 0.03 | 0.36 | 0.71 | 94 | 1007.8 |
| 20260505175722 | 12 | 48 | 1.6 | 1.6 | 0.03 | 0.36 | 0.71 | 94 | 1007.8 |
| 20260505175621 | 12 | 0.0 | 0.0 | 0.03 | 0.36 | 0.71 | 94 | 1007.7 | |
| 20260505175522 | 12 | 0.0 | 0.0 | 0.03 | 0.36 | 0.71 | 94 | 1007.7 | |
| 20260505175421 | 12 | 0.0 | 0.0 | 0.03 | 0.36 | 0.71 | 94 | 1007.8 | |
| 20260505175322 | 12 | 0.0 | 0.0 | 0.03 | 0.38 | 0.71 | 94 | 1007.7 | |
| 20260505175221 | 12 | 339 | 1.6 | 1.6 | 0.03 | 0.38 | 0.71 | 94 | 1007.7 |
| 20260505175122 | 12 | 340 | 1.6 | 3.2 | 0.03 | 0.38 | 0.71 | 94 | 1007.7 |
| 20260505175021 | 12 | 327 | 3.2 | 6.4 | 0.03 | 0.38 | 0.69 | 94 | 1007.7 |
| 20260505174922 | 12 | 0.0 | 0.0 | 0.03 | 0.38 | 0.69 | 94 | 1007.8 | |
| 20260505174821 | 12 | 334 | 1.6 | 1.6 | 0.03 | 0.38 | 0.69 | 94 | 1007.7 |
| 20260505174721 | 12 | 334 | 3.2 | 3.2 | 0.03 | 0.38 | 0.69 | 94 | 1007.8 |
| 20260505174621 | 12 | 336 | 3.2 | 4.8 | 0.03 | 0.38 | 0.69 | 94 | 1007.8 |
| 20260505174522 | 12 | 338 | 3.2 | 4.8 | 0.03 | 0.38 | 0.69 | 94 | 1007.8 |
| 20260505174422 | 12 | 320 | 3.2 | 3.2 | 0.03 | 0.38 | 0.66 | 94 | 1007.7 |
| 20260505174322 | 12 | 336 | 6.4 | 6.4 | 0.03 | 0.38 | 0.66 | 94 | 1007.7 |
| 20260505174222 | 12 | 332 | 4.8 | 4.8 | 0.03 | 0.38 | 0.66 | 94 | 1007.8 |
| 20260505174121 | 12 | 329 | 4.8 | 4.8 | 0.03 | 0.41 | 0.66 | 94 | 1007.8 |
| 20260505174021 | 12 | 327 | 6.4 | 6.4 | 0.03 | 0.41 | 0.66 | 94 | 1007.8 |
| 20260505173922 | 12 | 325 | 8.0 | 8.0 | 0.00 | 0.38 | 0.64 | 94 | 1007.8 |
| 20260505173822 | 12 | 336 | 6.4 | 6.4 | 0.00 | 0.38 | 0.64 | 94 | 1007.8 |
| 20260505173722 | 12 | 338 | 4.8 | 6.4 | 0.00 | 0.38 | 0.64 | 93 | 1007.8 |
| 20260505173622 | 12 | 0.0 | 0.0 | 0.00 | 0.38 | 0.64 | 93 | 1007.8 | |
| 20260505173521 | 12 | 339 | 3.2 | 3.2 | 0.00 | 0.38 | 0.64 | 93 | 1007.8 |
| 20260505173421 | 12 | 340 | 4.8 | 4.8 | 0.00 | 0.41 | 0.61 | 93 | 1007.9 |
| 20260505173322 | 12 | 322 | 4.8 | 4.8 | 0.00 | 0.41 | 0.61 | 93 | 1007.8 |
| 20260505173221 | 12 | 321 | 3.2 | 4.8 | 0.00 | 0.41 | 0.61 | 94 | 1007.8 |
| 20260505173122 | 12 | 321 | 4.8 | 6.4 | 0.00 | 0.41 | 0.61 | 94 | 1007.8 |
| 20260505173021 | 12 | 338 | 6.4 | 6.4 | 0.00 | 0.41 | 0.61 | 94 | 1007.8 |
| 20260505172922 | 12 | 0.0 | 0.0 | 0.00 | 0.41 | 0.61 | 94 | 1007.8 | |
| 20260505172822 | 12 | 0.0 | 0.0 | 0.00 | 0.41 | 0.61 | 93 | 1007.8 | |
| 20260505172722 | 12 | 331 | 3.2 | 4.8 | 0.00 | 0.41 | 0.61 | 93 | 1007.8 |
| 20260505172622 | 12 | 331 | 4.8 | 4.8 | 0.00 | 0.41 | 0.61 | 93 | 1007.8 |
| 20260505172522 | 12 | 331 | 6.4 | 6.4 | 0.00 | 0.41 | 0.61 | 93 | 1007.8 |
| 20260505172421 | 12 | 332 | 8.0 | 8.0 | 0.00 | 0.41 | 0.61 | 93 | 1007.8 |
| 20260505172322 | 12 | 0.0 | 0.0 | 0.00 | 0.41 | 0.61 | 93 | 1007.8 | |
| 20260505172221 | 12 | 332 | 4.8 | 4.8 | 0.00 | 0.41 | 0.61 | 93 | 1007.8 |
| 20260505172122 | 12 | 0.0 | 0.0 | 0.00 | 0.41 | 0.61 | 93 | 1007.8 | |
| 20260505172022 | 12 | 0.0 | 0.0 | 0.00 | 0.41 | 0.61 | 93 | 1007.8 | |
| 20260505171921 | 12 | 337 | 3.2 | 3.2 | 0.00 | 0.41 | 0.61 | 93 | 1007.8 |
| 20260505171821 | 12 | 0.0 | 0.0 | 0.00 | 0.41 | 0.61 | 93 | 1007.9 | |
| 20260505171722 | 12 | 337 | 1.6 | 3.2 | 0.00 | 0.41 | 0.61 | 93 | 1007.8 |
| 20260505171622 | 12 | 337 | 4.8 | 4.8 | 0.00 | 0.41 | 0.61 | 93 | 1007.8 |
| 20260505171522 | 12 | 333 | 3.2 | 3.2 | 0.00 | 0.41 | 0.61 | 93 | 1007.8 |
| 20260505171422 | 12 | 335 | 6.4 | 6.4 | 0.00 | 0.41 | 0.61 | 93 | 1007.8 |
| 20260505171321 | 12 | 336 | 4.8 | 4.8 | 0.00 | 0.41 | 0.61 | 93 | 1007.8 |
| 20260505171222 | 12 | 339 | 4.8 | 4.8 | 0.00 | 0.43 | 0.61 | 93 | 1007.8 |
| 20260505171121 | 12 | 330 | 4.8 | 4.8 | 0.00 | 0.43 | 0.61 | 93 | 1007.8 |
| 20260505171022 | 12 | 336 | 6.4 | 6.4 | 0.00 | 0.43 | 0.61 | 93 | 1007.8 |
| 20260505170923 | 12 | 331 | 8.0 | 9.7 | 0.00 | 0.43 | 0.61 | 93 | 1007.8 |
| 20260505170821 | 12 | 0.0 | 0.0 | 0.00 | 0.43 | 0.61 | 93 | 1007.7 | |
| 20260505170721 | 12 | 342 | 3.2 | 3.2 | 0.00 | 0.43 | 0.61 | 93 | 1007.8 |
| 20260505170622 | 12 | 342 | 6.4 | 6.4 | 0.00 | 0.43 | 0.61 | 93 | 1007.8 |
| 20260505170522 | 12 | 334 | 6.4 | 8.0 | 0.00 | 0.43 | 0.61 | 93 | 1007.8 |
| 20260505170421 | 12 | 331 | 6.4 | 8.0 | 0.00 | 0.43 | 0.61 | 93 | 1007.8 |
| 20260505170322 | 12 | 315 | 4.8 | 6.4 | 0.00 | 0.43 | 0.61 | 93 | 1007.8 |
| 20260505170221 | 12 | 0.0 | 0.0 | 0.00 | 0.43 | 0.61 | 93 | 1007.8 | |
| 20260505170122 | 12 | 0.0 | 0.0 | 0.00 | 0.43 | 0.61 | 93 | 1007.8 | |
| 20260505170021 | 12 | 328 | 3.2 | 3.2 | 0.00 | 0.43 | 0.61 | 93 | 1007.8 |
| 20260505165921 | 12 | 329 | 1.6 | 1.6 | 0.00 | 0.43 | 0.61 | 93 | 1007.8 |
| 20260505165822 | 12 | 329 | 3.2 | 3.2 | 0.00 | 0.43 | 0.61 | 93 | 1007.8 |
| 20260505165722 | 12 | 340 | 6.4 | 6.4 | 0.00 | 0.43 | 0.61 | 93 | 1007.8 |
| 20260505165622 | 12 | 321 | 6.4 | 6.4 | 0.00 | 0.43 | 0.61 | 93 | 1007.8 |
| 20260505165522 | 12 | 0.0 | 0.0 | 0.00 | 0.43 | 0.61 | 93 | 1007.8 | |
| 20260505165422 | 12 | 336 | 1.6 | 1.6 | 0.00 | 0.43 | 0.61 | 93 | 1007.7 |
| 20260505165321 | 12 | 0.0 | 0.0 | 0.00 | 0.43 | 0.61 | 93 | 1007.7 | |
| 20260505165221 | 12 | 339 | 3.2 | 3.2 | 0.00 | 0.43 | 0.61 | 93 | 1007.8 |
| 20260505165121 | 12 | 340 | 4.8 | 4.8 | 0.00 | 0.43 | 0.61 | 93 | 1007.8 |
| 20260505165021 | 12 | 0.0 | 0.0 | 0.00 | 0.43 | 0.61 | 93 | 1007.8 | |
| 20260505164922 | 12 | 341 | 4.8 | 6.4 | 0.00 | 0.43 | 0.61 | 93 | 1007.8 |
| 20260505164821 | 12 | 336 | 4.8 | 4.8 | 0.00 | 0.43 | 0.61 | 93 | 1007.7 |
| 20260505164722 | 12 | 335 | 4.8 | 4.8 | 0.00 | 0.43 | 0.61 | 93 | 1007.7 |
| 20260505164622 | 12 | 336 | 8.0 | 8.0 | 0.00 | 0.43 | 0.61 | 93 | 1007.7 |
| 20260505164521 | 12 | 340 | 1.6 | 3.2 | 0.00 | 0.43 | 0.61 | 93 | 1007.8 |
| 20260505164421 | 12 | 343 | 4.8 | 6.4 | 0.00 | 0.43 | 0.61 | 93 | 1007.8 |
| 20260505164322 | 12 | 347 | 4.8 | 4.8 | 0.00 | 0.43 | 0.61 | 93 | 1007.8 |
| 20260505164222 | 12 | 325 | 8.0 | 9.7 | 0.00 | 0.43 | 0.61 | 93 | 1007.8 |
| 20260505164122 | 12 | 348 | 4.8 | 4.8 | 0.00 | 0.43 | 0.61 | 93 | 1007.8 |
| 20260505164021 | 12 | 348 | 4.8 | 6.4 | 0.00 | 0.43 | 0.61 | 93 | 1007.8 |
| 20260505163922 | 12 | 337 | 4.8 | 4.8 | 0.00 | 0.43 | 0.61 | 93 | 1007.8 |
| 20260505163821 | 12 | 329 | 4.8 | 6.4 | 0.00 | 0.43 | 0.61 | 93 | 1007.8 |
| 20260505163721 | 12 | 331 | 6.4 | 6.4 | 0.00 | 0.43 | 0.61 | 93 | 1007.9 |
| 20260505163622 | 12 | 325 | 9.7 | 9.7 | 0.00 | 0.43 | 0.61 | 93 | 1007.9 |
| 20260505163521 | 12 | 348 | 3.2 | 8.0 | 0.00 | 0.43 | 0.61 | 93 | 1007.9 |
| 20260505163421 | 12 | 0.0 | 0.0 | 0.00 | 0.43 | 0.61 | 93 | 1007.9 | |
| 20260505163321 | 12 | 339 | 4.8 | 4.8 | 0.00 | 0.43 | 0.61 | 93 | 1008.0 |
| 20260505163222 | 12 | 342 | 3.2 | 4.8 | 0.00 | 0.43 | 0.61 | 93 | 1007.9 |
| 20260505163121 | 12 | 341 | 6.4 | 6.4 | 0.00 | 0.43 | 0.61 | 93 | 1007.9 |
| 20260505163021 | 12 | 346 | 8.0 | 8.0 | 0.00 | 0.43 | 0.61 | 93 | 1008.0 |
| 20260505162921 | 12 | 323 | 6.4 | 6.4 | 0.00 | 0.43 | 0.61 | 93 | 1008.0 |
| 20260505162822 | 12 | 331 | 8.0 | 8.0 | 0.00 | 0.43 | 0.61 | 93 | 1008.0 |
| 20260505162721 | 12 | 324 | 6.4 | 8.0 | 0.00 | 0.43 | 0.61 | 93 | 1008.0 |
| 20260505162621 | 12 | 329 | 4.8 | 4.8 | 0.00 | 0.43 | 0.61 | 92 | 1007.9 |
| 20260505162522 | 12 | 341 | 3.2 | 3.2 | 0.00 | 0.43 | 0.61 | 92 | 1008.0 |
| 20260505162421 | 12 | 0.0 | 0.0 | 0.00 | 0.43 | 0.61 | 92 | 1008.0 | |
| 20260505162321 | 12 | 338 | 4.8 | 8.0 | 0.00 | 0.43 | 0.61 | 92 | 1008.0 |
| 20260505162221 | 12 | 332 | 8.0 | 8.0 | 0.00 | 0.43 | 0.61 | 92 | 1007.9 |
| 20260505162122 | 12 | 329 | 1.6 | 3.2 | 0.00 | 0.43 | 0.61 | 92 | 1008.0 |
| 20260505162007 | 12 | 346 | 3.2 | 4.8 | 0.00 | 0.43 | 0.61 | 92 | 1008.0 |
| 20260505161912 | 13 | 337 | 8.0 | 8.0 | 0.00 | 0.43 | 0.61 | 93 | 1008.0 |
| 20260505161757 | 13 | 325 | 1.6 | 1.6 | 0.00 | 0.43 | 0.61 | 92 | 1008.0 |
| 20260505161647 | 13 | 330 | 8.0 | 9.7 | 0.00 | 0.43 | 0.61 | 92 | 1008.0 |
| 20260505161547 | 13 | 331 | 6.4 | 6.4 | 0.00 | 0.43 | 0.61 | 92 | 1007.9 |
| 20260505161447 | 13 | 334 | 8.0 | 8.0 | 0.00 | 0.43 | 0.61 | 92 | 1008.1 |
| 20260505161348 | 13 | 340 | 4.8 | 6.4 | 0.00 | 0.43 | 0.61 | 92 | 1008.1 |
| 20260505161247 | 13 | 337 | 8.0 | 8.0 | 0.00 | 0.43 | 0.61 | 92 | 1008.1 |
| 20260505161147 | 13 | 336 | 8.0 | 11.3 | 0.00 | 0.43 | 0.61 | 92 | 1008.0 |
| 20260505161047 | 13 | 329 | 8.0 | 8.0 | 0.00 | 0.43 | 0.61 | 92 | 1008.1 |
| 20260505160947 | 13 | 326 | 8.0 | 8.0 | 0.00 | 0.43 | 0.61 | 92 | 1008.0 |
| 20260505160837 | 13 | 329 | 9.7 | 9.7 | 0.00 | 0.43 | 0.61 | 93 | 1008.0 |
| 20260505160737 | 13 | 322 | 6.4 | 9.7 | 0.00 | 0.43 | 0.61 | 93 | 1008.0 |
| 20260505160638 | 13 | 335 | 9.7 | 9.7 | 0.00 | 0.43 | 0.61 | 93 | 1008.0 |
| 20260505160538 | 13 | 355 | 6.4 | 6.4 | 0.00 | 0.43 | 0.61 | 93 | 1008.0 |
| 20260505160437 | 13 | 329 | 9.7 | 9.7 | 0.00 | 0.43 | 0.61 | 93 | 1008.0 |
| 20260505160337 | 13 | 327 | 9.7 | 11.3 | 0.00 | 0.43 | 0.61 | 93 | 1008.0 |
| 20260505160239 | 13 | 334 | 6.4 | 9.7 | 0.00 | 0.43 | 0.61 | 93 | 1008.1 |
| 20260505160127 | 13 | 351 | 6.4 | 8.0 | 0.00 | 0.43 | 0.61 | 93 | 1008.1 |
| 20260505153347 | 13 | 317 | 11.3 | 12.9 | 0.00 | 0.43 | 0.61 | 92 | 1008.2 |
| 20260505153248 | 13 | 329 | 11.3 | 12.9 | 0.00 | 0.43 | 0.61 | 92 | 1008.2 |
| 20260505153147 | 13 | 308 | 11.3 | 11.3 | 0.00 | 0.43 | 0.61 | 92 | 1008.2 |
| 20260505153047 | 13 | 333 | 11.3 | 16.1 | 0.00 | 0.43 | 0.61 | 92 | 1008.1 |
| 20260505152947 | 13 | 340 | 12.9 | 14.5 | 0.00 | 0.43 | 0.61 | 92 | 1008.2 |
| 20260505152848 | 13 | 342 | 8.0 | 8.0 | 0.00 | 0.43 | 0.61 | 92 | 1008.2 |
| 20260505152737 | 13 | 336 | 14.5 | 14.5 | 0.00 | 0.43 | 0.61 | 92 | 1008.2 |
| 20260505152637 | 13 | 346 | 9.7 | 11.3 | 0.00 | 0.43 | 0.61 | 92 | 1008.2 |
| 20260505152537 | 13 | 345 | 12.9 | 12.9 | 0.00 | 0.43 | 0.61 | 92 | 1008.2 |
| 20260505152437 | 13 | 340 | 14.5 | 16.1 | 0.00 | 0.43 | 0.61 | 92 | 1008.2 |
| 20260505152337 | 13 | 340 | 8.0 | 9.7 | 0.00 | 0.43 | 0.61 | 92 | 1008.2 |
| 20260505152238 | 13 | 336 | 14.5 | 14.5 | 0.00 | 0.43 | 0.61 | 92 | 1008.3 |
| 20260505152137 | 13 | 325 | 11.3 | 11.3 | 0.00 | 0.43 | 0.61 | 92 | 1008.3 |
| 20260505152027 | 13 | 332 | 9.7 | 9.7 | 0.00 | 0.43 | 0.61 | 92 | 1008.3 |
| 20260505151927 | 13 | 333 | 11.3 | 11.3 | 0.00 | 0.43 | 0.61 | 92 | 1008.3 |
| 20260505151828 | 13 | 335 | 9.7 | 9.7 | 0.00 | 0.43 | 0.61 | 92 | 1008.3 |
| 20260505151727 | 13 | 337 | 11.3 | 12.9 | 0.00 | 0.43 | 0.61 | 92 | 1008.3 |
| 20260505151627 | 13 | 334 | 9.7 | 9.7 | 0.00 | 0.43 | 0.61 | 92 | 1008.3 |
| 20260505151527 | 13 | 335 | 8.0 | 8.0 | 0.00 | 0.43 | 0.61 | 92 | 1008.3 |
| 20260505151431 | 13 | 329 | 9.7 | 9.7 | 0.00 | 0.43 | 0.61 | 92 | 1008.3 |
| 20260505151317 | 13 | 336 | 4.8 | 4.8 | 0.00 | 0.43 | 0.61 | 92 | 1008.3 |
| 20260505151217 | 13 | 347 | 9.7 | 9.7 | 0.00 | 0.43 | 0.61 | 92 | 1008.3 |
| 20260505151117 | 13 | 325 | 8.0 | 9.7 | 0.00 | 0.43 | 0.61 | 92 | 1008.3 |
| 20260505151018 | 13 | 326 | 12.9 | 12.9 | 0.00 | 0.43 | 0.61 | 92 | 1008.3 |
| 20260505150917 | 13 | 332 | 12.9 | 12.9 | 0.00 | 0.43 | 0.61 | 91 | 1008.3 |
| 20260505150817 | 13 | 334 | 9.7 | 9.7 | 0.00 | 0.43 | 0.61 | 91 | 1008.3 |
| 20260505150707 | 13 | 345 | 8.0 | 11.3 | 0.00 | 0.43 | 0.61 | 91 | 1008.3 |
| 20260505150608 | 13 | 331 | 11.3 | 11.3 | 0.00 | 0.43 | 0.61 | 92 | 1008.3 |
| 20260505150507 | 13 | 349 | 9.7 | 9.7 | 0.00 | 0.43 | 0.61 | 92 | 1008.3 |
| 20260505150407 | 13 | 313 | 11.3 | 12.9 | 0.00 | 0.43 | 0.61 | 92 | 1008.3 |
| 20260505150307 | 14 | 339 | 9.7 | 9.7 | 0.00 | 0.43 | 0.61 | 92 | 1008.4 |
| 20260505150158 | 14 | 312 | 11.3 | 11.3 | 0.00 | 0.43 | 0.61 | 92 | 1008.4 |
| 20260505140647 | 14 | 316 | 9.7 | 9.7 | 0.23 | 0.43 | 0.61 | 93 | 1008.6 |
| 20260505140537 | 14 | 334 | 3.2 | 3.2 | 0.23 | 0.43 | 0.61 | 93 | 1008.6 |
| 20260505140437 | 14 | 355 | 6.4 | 6.4 | 0.23 | 0.43 | 0.61 | 93 | 1008.6 |
| 20260505140337 | 14 | 335 | 11.3 | 11.3 | 0.23 | 0.43 | 0.61 | 93 | 1008.6 |
| 20260505140238 | 14 | 343 | 12.9 | 12.9 | 0.23 | 0.43 | 0.61 | 93 | 1008.7 |
| 20260505140137 | 14 | 338 | 1.6 | 3.2 | 0.23 | 0.43 | 0.61 | 93 | 1008.7 |